Time,TemperatureF,DewpointF,PressureIn,WindDirection,WindDirectionDegrees,WindSpeedMPH,WindSpeedGustMPH,Humidity,HourlyPrecipIn,Conditions,Clouds,dailyrainin,SoftwareType,DateUTC
2013-02-13 00:00:00,16.9,-1.2,29.60,NW,321,0.0,0.0,44,0.00,,---,0.00,VWS V14.00,2013-02-13 05:00:00,
2013-02-13 00:05:00,16.7,-1.4,29.60,NW,321,0.0,0.0,44,0.00,,---,0.00,VWS V14.00,2013-02-13 05:05:00,
2013-02-13 00:10:00,16.5,-1.1,29.60,NW,321,0.0,0.0,45,0.00,,---,0.00,VWS V14.00,2013-02-13 05:10:00,
2013-02-13 00:15:00,16.5,-1.1,29.60,NW,321,0.0,0.0,45,0.00,,---,0.00,VWS V14.00,2013-02-13 05:15:00,
2013-02-13 00:20:00,16.7,-0.9,29.60,NW,321,4.7,5.4,45,0.00,,---,0.00,VWS V14.00,2013-02-13 05:20:00,
2013-02-13 00:25:00,16.7,-0.9,29.60,NW,321,4.7,6.0,45,0.00,,---,0.00,VWS V14.00,2013-02-13 05:25:00,
2013-02-13 00:26:00,16.9,-0.8,29.60,NW,321,4.7,5.4,45,0.00,,---,0.00,VWS V14.00,2013-02-13 05:26:00,
2013-02-13 00:30:00,16.7,-0.9,29.60,NW,321,4.7,6.0,45,0.00,,---,0.00,VWS V14.00,2013-02-13 05:30:00,
2013-02-13 00:31:00,16.7,-0.9,29.60,NW,321,4.0,4.0,45,0.00,,---,0.00,VWS V14.00,2013-02-13 05:31:00,
2013-02-13 00:35:00,16.7,-0.9,29.60,NW,321,3.4,5.4,45,0.00,,---,0.00,VWS V14.00,2013-02-13 05:35:00,
2013-02-13 00:36:00,16.7,-0.9,29.57,NW,321,4.0,4.0,45,0.00,,---,0.00,VWS V14.00,2013-02-13 05:36:00,
2013-02-13 00:40:00,16.5,-1.1,29.57,NW,321,4.0,4.7,45,0.00,,---,0.00,VWS V14.00,2013-02-13 05:40:00,
2013-02-13 00:41:00,16.5,-1.1,29.57,NW,321,6.0,6.0,45,0.00,,---,0.00,VWS V14.00,2013-02-13 05:41:00,
2013-02-13 00:45:00,16.5,-1.1,29.57,NW,321,4.7,4.7,45,0.00,,---,0.00,VWS V14.00,2013-02-13 05:45:00,
2013-02-13 00:46:00,16.5,-1.1,29.57,NW,321,4.0,6.0,45,0.00,,---,0.00,VWS V14.00,2013-02-13 05:46:00,
2013-02-13 00:50:00,16.5,-1.1,29.57,NW,321,4.0,4.0,45,0.00,,---,0.00,VWS V14.00,2013-02-13 05:50:00,
2013-02-13 00:51:00,16.5,-1.1,29.57,NW,321,0.0,4.0,45,0.00,,---,0.00,VWS V14.00,2013-02-13 05:51:00,
2013-02-13 00:55:00,16.3,-1.3,29.57,NW,321,5.4,5.4,45,0.00,,---,0.00,VWS V14.00,2013-02-13 05:55:00,
2013-02-13 00:56:00,16.3,-1.3,29.57,NW,321,4.7,4.7,45,0.00,,---,0.00,VWS V14.00,2013-02-13 05:56:00,
2013-02-13 01:00:00,16.5,-0.6,29.57,NW,321,6.0,6.0,46,0.00,,---,0.00,VWS V14.00,2013-02-13 06:00:00,
2013-02-13 01:01:00,16.5,-0.6,29.57,NW,321,0.0,4.0,46,0.00,,---,0.00,VWS V14.00,2013-02-13 06:01:00,
2013-02-13 01:05:00,16.5,-1.1,29.57,NW,321,4.7,6.0,45,0.00,,---,0.00,VWS V14.00,2013-02-13 06:05:00,
2013-02-13 01:06:00,16.5,-1.1,29.57,NW,321,4.0,4.7,45,0.00,,---,0.00,VWS V14.00,2013-02-13 06:06:00,
2013-02-13 01:07:00,16.5,-1.1,29.57,NW,321,4.0,4.0,45,0.00,,---,0.00,VWS V14.00,2013-02-13 06:07:00,
2013-02-13 01:10:00,16.5,-1.1,29.57,NW,321,4.0,4.0,45,0.00,,---,0.00,VWS V14.00,2013-02-13 06:10:00,
2013-02-13 01:11:00,16.5,-1.1,29.57,NW,321,3.4,3.4,45,0.00,,---,0.00,VWS V14.00,2013-02-13 06:11:00,
2013-02-13 01:12:00,16.7,-0.9,29.57,NW,321,0.0,3.4,45,0.00,,---,0.00,VWS V14.00,2013-02-13 06:12:00,
2013-02-13 01:15:00,16.5,-1.1,29.57,NW,321,3.4,3.4,45,0.00,,---,0.00,VWS V14.00,2013-02-13 06:15:00,
2013-02-13 01:16:00,16.5,-1.1,29.57,NW,321,0.0,0.0,45,0.00,,---,0.00,VWS V14.00,2013-02-13 06:16:00,
2013-02-13 01:17:00,16.5,-1.1,29.57,NW,321,0.0,0.0,45,0.00,,---,0.00,VWS V14.00,2013-02-13 06:17:00,
2013-02-13 01:20:00,16.5,-1.1,29.57,NW,321,4.0,4.0,45,0.00,,---,0.00,VWS V14.00,2013-02-13 06:20:00,
2013-02-13 01:21:00,16.5,-1.1,29.57,NW,321,3.4,4.0,45,0.00,,---,0.00,VWS V14.00,2013-02-13 06:21:00,
2013-02-13 01:22:00,16.5,-1.1,29.57,NW,321,4.0,4.0,45,0.00,,---,0.00,VWS V14.00,2013-02-13 06:22:00,
2013-02-13 01:25:00,16.5,-1.1,29.57,NW,321,0.0,0.0,45,0.00,,---,0.00,VWS V14.00,2013-02-13 06:25:00,
2013-02-13 01:26:00,16.5,-1.1,29.57,NW,321,0.0,0.0,45,0.00,,---,0.00,VWS V14.00,2013-02-13 06:26:00,
2013-02-13 01:27:00,16.5,-1.1,29.57,NW,321,0.0,0.0,45,0.00,,---,0.00,VWS V14.00,2013-02-13 06:27:00,
2013-02-13 01:30:00,16.3,-1.3,29.57,NW,321,0.0,0.0,45,0.00,,---,0.00,VWS V14.00,2013-02-13 06:30:00,
2013-02-13 01:31:00,16.3,-1.3,29.57,NW,321,0.0,0.0,45,0.00,,---,0.00,VWS V14.00,2013-02-13 06:31:00,
2013-02-13 01:32:00,16.3,-1.3,29.57,NW,321,0.0,0.0,45,0.00,,---,0.00,VWS V14.00,2013-02-13 06:32:00,
2013-02-13 01:33:00,16.3,-1.3,29.57,NW,321,0.0,0.0,45,0.00,,---,0.00,VWS V14.00,2013-02-13 06:33:00,
2013-02-13 01:35:00,16.2,-1.4,29.57,NW,321,0.0,0.0,45,0.00,,---,0.00,VWS V14.00,2013-02-13 06:35:00,
2013-02-13 01:36:00,16.2,-1.4,29.57,NW,321,0.0,0.0,45,0.00,,---,0.00,VWS V14.00,2013-02-13 06:36:00,
2013-02-13 01:37:00,16.2,-1.4,29.57,NW,321,0.0,0.0,45,0.00,,---,0.00,VWS V14.00,2013-02-13 06:37:00,
2013-02-13 01:38:00,16.2,-1.4,29.57,NW,321,0.0,0.0,45,0.00,,---,0.00,VWS V14.00,2013-02-13 06:38:00,
2013-02-13 01:40:00,16.0,-1.6,29.57,NW,321,0.0,0.0,45,0.00,,---,0.00,VWS V14.00,2013-02-13 06:40:00,
2013-02-13 01:42:00,16.0,-1.6,29.57,NW,321,0.0,0.0,45,0.00,,---,0.00,VWS V14.00,2013-02-13 06:42:00,
2013-02-13 01:43:00,16.0,-1.6,29.57,NW,321,0.0,0.0,45,0.00,,---,0.00,VWS V14.00,2013-02-13 06:43:00,
2013-02-13 01:45:00,16.0,-1.6,29.57,NW,321,3.4,3.4,45,0.00,,---,0.00,VWS V14.00,2013-02-13 06:45:00,
2013-02-13 01:47:00,16.0,-1.6,29.57,NW,321,0.0,0.0,45,0.00,,---,0.00,VWS V14.00,2013-02-13 06:47:00,
2013-02-13 01:48:00,16.0,-1.6,29.57,NW,321,0.0,0.0,45,0.00,,---,0.00,VWS V14.00,2013-02-13 06:48:00,
2013-02-13 01:50:00,15.8,-1.3,29.57,NW,321,0.0,0.0,46,0.00,,---,0.00,VWS V14.00,2013-02-13 06:50:00,
2013-02-13 01:52:00,15.8,-1.3,29.57,NW,321,0.0,0.0,46,0.00,,---,0.00,VWS V14.00,2013-02-13 06:52:00,
2013-02-13 01:53:00,15.8,-1.3,29.57,NW,321,0.0,0.0,46,0.00,,---,0.00,VWS V14.00,2013-02-13 06:53:00,
2013-02-13 01:55:00,15.8,-1.3,29.57,NW,321,0.0,0.0,46,0.00,,---,0.00,VWS V14.00,2013-02-13 06:55:00,
2013-02-13 01:57:00,15.8,-1.3,29.57,NW,321,0.0,0.0,46,0.00,,---,0.00,VWS V14.00,2013-02-13 06:57:00,
2013-02-13 01:58:00,15.8,-1.3,29.57,NW,321,0.0,0.0,46,0.00,,---,0.00,VWS V14.00,2013-02-13 06:58:00,
2013-02-13 02:01:00,15.6,-1.5,29.57,NW,321,0.0,0.0,46,0.00,,---,0.00,VWS V14.00,2013-02-13 07:01:00,
2013-02-13 02:02:00,15.8,-1.3,29.57,NW,321,0.0,0.0,46,0.00,,---,0.00,VWS V14.00,2013-02-13 07:02:00,
2013-02-13 02:03:00,15.8,-1.3,29.57,NW,321,0.0,0.0,46,0.00,,---,0.00,VWS V14.00,2013-02-13 07:03:00,
2013-02-13 02:06:00,16.0,-1.6,29.54,NW,321,0.0,0.0,45,0.00,,---,0.00,VWS V14.00,2013-02-13 07:06:00,
2013-02-13 02:07:00,16.0,-1.1,29.54,NW,321,0.0,0.0,46,0.00,,---,0.00,VWS V14.00,2013-02-13 07:07:00,
2013-02-13 02:08:00,16.2,-1.0,29.54,NW,321,0.0,0.0,46,0.00,,---,0.00,VWS V14.00,2013-02-13 07:08:00,
2013-02-13 02:11:00,16.2,-1.0,29.54,NW,321,0.0,3.4,46,0.00,,---,0.00,VWS V14.00,2013-02-13 07:11:00,
2013-02-13 02:12:00,16.3,-0.8,29.54,NW,321,0.0,0.0,46,0.00,,---,0.00,VWS V14.00,2013-02-13 07:12:00,
2013-02-13 02:13:00,16.3,-0.8,29.54,NW,321,0.0,0.0,46,0.00,,---,0.00,VWS V14.00,2013-02-13 07:13:00,
2013-02-13 02:16:00,16.3,-0.8,29.54,NW,321,0.0,0.0,46,0.00,,---,0.00,VWS V14.00,2013-02-13 07:16:00,
2013-02-13 02:17:00,16.2,-1.0,29.54,NW,321,0.0,0.0,46,0.00,,---,0.00,VWS V14.00,2013-02-13 07:17:00,
2013-02-13 02:18:00,16.2,-1.0,29.54,NW,321,0.0,0.0,46,0.00,,---,0.00,VWS V14.00,2013-02-13 07:18:00,
2013-02-13 02:21:00,16.2,-1.4,29.54,NW,321,0.0,0.0,45,0.00,,---,0.00,VWS V14.00,2013-02-13 07:21:00,
2013-02-13 02:22:00,16.2,-1.4,29.54,NW,321,0.0,0.0,45,0.00,,---,0.00,VWS V14.00,2013-02-13 07:22:00,
2013-02-13 02:23:00,16.2,-1.4,29.54,NW,321,0.0,0.0,45,0.00,,---,0.00,VWS V14.00,2013-02-13 07:23:00,
2013-02-13 02:26:00,16.2,-1.4,29.54,NW,321,0.0,0.0,45,0.00,,---,0.00,VWS V14.00,2013-02-13 07:26:00,
2013-02-13 02:27:00,16.2,-1.4,29.54,NW,321,0.0,0.0,45,0.00,,---,0.00,VWS V14.00,2013-02-13 07:27:00,
2013-02-13 02:28:00,16.2,-1.4,29.54,NW,321,0.0,0.0,45,0.00,,---,0.00,VWS V14.00,2013-02-13 07:28:00,
2013-02-13 02:31:00,16.2,-1.4,29.54,NW,321,0.0,0.0,45,0.00,,---,0.00,VWS V14.00,2013-02-13 07:31:00,
2013-02-13 02:32:00,16.2,-1.4,29.54,NW,321,0.0,0.0,45,0.00,,---,0.00,VWS V14.00,2013-02-13 07:32:00,
2013-02-13 02:33:00,16.0,-1.6,29.54,NW,321,0.0,0.0,45,0.00,,---,0.00,VWS V14.00,2013-02-13 07:33:00,
2013-02-13 02:34:00,16.0,-1.6,29.54,NW,321,0.0,0.0,45,0.00,,---,0.00,VWS V14.00,2013-02-13 07:34:00,
2013-02-13 02:36:00,16.0,-1.6,29.54,NW,321,0.0,0.0,45,0.00,,---,0.00,VWS V14.00,2013-02-13 07:36:00,
2013-02-13 02:37:00,16.0,-1.6,29.54,NW,321,0.0,0.0,45,0.00,,---,0.00,VWS V14.00,2013-02-13 07:37:00,
2013-02-13 02:38:00,15.8,-1.8,29.54,NW,321,0.0,0.0,45,0.00,,---,0.00,VWS V14.00,2013-02-13 07:38:00,
2013-02-13 02:39:00,15.8,-1.8,29.54,NW,321,0.0,0.0,45,0.00,,---,0.00,VWS V14.00,2013-02-13 07:39:00,
2013-02-13 02:41:00,15.8,-1.8,29.54,NW,321,0.0,0.0,45,0.00,,---,0.00,VWS V14.00,2013-02-13 07:41:00,
2013-02-13 02:42:00,15.8,-1.8,29.54,NW,321,0.0,0.0,45,0.00,,---,0.00,VWS V14.00,2013-02-13 07:42:00,
2013-02-13 02:43:00,15.8,-1.8,29.54,NW,321,4.0,4.0,45,0.00,,---,0.00,VWS V14.00,2013-02-13 07:43:00,
2013-02-13 02:44:00,15.8,-1.8,29.54,NW,321,0.0,3.4,45,0.00,,---,0.00,VWS V14.00,2013-02-13 07:44:00,
2013-02-13 02:46:00,15.8,-1.8,29.54,NW,321,4.0,4.7,45,0.00,,---,0.00,VWS V14.00,2013-02-13 07:46:00,
2013-02-13 02:47:00,15.8,-1.8,29.54,NW,321,4.0,4.0,45,0.00,,---,0.00,VWS V14.00,2013-02-13 07:47:00,
2013-02-13 02:48:00,15.8,-1.8,29.54,NW,321,0.0,3.4,45,0.00,,---,0.00,VWS V14.00,2013-02-13 07:48:00,
2013-02-13 02:49:00,15.8,-1.8,29.54,NW,321,4.7,4.7,45,0.00,,---,0.00,VWS V14.00,2013-02-13 07:49:00,
2013-02-13 02:51:00,15.8,-1.8,29.54,NW,321,4.0,4.0,45,0.00,,---,0.00,VWS V14.00,2013-02-13 07:51:00,
2013-02-13 02:53:00,15.8,-1.8,29.54,NW,321,0.0,4.0,45,0.00,,---,0.00,VWS V14.00,2013-02-13 07:53:00,
2013-02-13 02:55:00,15.8,-1.8,29.54,NW,321,4.0,4.0,45,0.00,,---,0.00,VWS V14.00,2013-02-13 07:55:00,
2013-02-13 02:57:00,15.8,-1.8,29.54,NW,321,0.0,0.0,45,0.00,,---,0.00,VWS V14.00,2013-02-13 07:57:00,
2013-02-13 02:58:00,15.6,-1.9,29.54,NW,321,3.4,3.4,45,0.00,,---,0.00,VWS V14.00,2013-02-13 07:58:00,
2013-02-13 03:00:00,15.6,-1.9,29.54,NW,321,0.0,4.0,45,0.00,,---,0.00,VWS V14.00,2013-02-13 08:00:00,
2013-02-13 03:02:00,15.6,-1.9,29.54,NW,321,0.0,0.0,45,0.00,,---,0.00,VWS V14.00,2013-02-13 08:02:00,
2013-02-13 03:03:00,15.4,-2.1,29.54,NW,321,0.0,0.0,45,0.00,,---,0.00,VWS V14.00,2013-02-13 08:03:00,
2013-02-13 03:04:00,15.4,-2.1,29.54,NW,321,0.0,0.0,45,0.00,,---,0.00,VWS V14.00,2013-02-13 08:04:00,
2013-02-13 03:05:00,15.4,-2.1,29.54,NW,321,0.0,0.0,45,0.00,,---,0.00,VWS V14.00,2013-02-13 08:05:00,
2013-02-13 03:07:00,15.4,-2.1,29.54,NW,321,0.0,0.0,45,0.00,,---,0.00,VWS V14.00,2013-02-13 08:07:00,
2013-02-13 03:08:00,15.4,-2.1,29.54,NW,321,0.0,0.0,45,0.00,,---,0.00,VWS V14.00,2013-02-13 08:08:00,
2013-02-13 03:09:00,15.4,-2.1,29.54,NW,321,0.0,0.0,45,0.00,,---,0.00,VWS V14.00,2013-02-13 08:09:00,
2013-02-13 03:10:00,15.6,-1.9,29.54,NW,321,0.0,0.0,45,0.00,,---,0.00,VWS V14.00,2013-02-13 08:10:00,
2013-02-13 03:12:00,15.8,-1.8,29.54,NW,321,0.0,0.0,45,0.00,,---,0.00,VWS V14.00,2013-02-13 08:12:00,
2013-02-13 03:13:00,15.8,-1.8,29.54,NW,321,0.0,0.0,45,0.00,,---,0.00,VWS V14.00,2013-02-13 08:13:00,
2013-02-13 03:14:00,15.8,-1.8,29.54,NW,321,0.0,0.0,45,0.00,,---,0.00,VWS V14.00,2013-02-13 08:14:00,
2013-02-13 03:15:00,15.8,-1.8,29.54,NW,321,0.0,0.0,45,0.00,,---,0.00,VWS V14.00,2013-02-13 08:15:00,
2013-02-13 03:17:00,16.0,-1.6,29.54,NW,321,0.0,0.0,45,0.00,,---,0.00,VWS V14.00,2013-02-13 08:17:00,
2013-02-13 03:18:00,16.0,-1.6,29.54,NW,321,0.0,0.0,45,0.00,,---,0.00,VWS V14.00,2013-02-13 08:18:00,
2013-02-13 03:19:00,16.0,-1.6,29.54,NW,321,0.0,0.0,45,0.00,,---,0.00,VWS V14.00,2013-02-13 08:19:00,
2013-02-13 03:20:00,16.0,-1.6,29.54,NW,321,0.0,0.0,45,0.00,,---,0.00,VWS V14.00,2013-02-13 08:20:00,
2013-02-13 03:22:00,16.0,-1.6,29.54,NW,321,0.0,0.0,45,0.00,,---,0.00,VWS V14.00,2013-02-13 08:22:00,
2013-02-13 03:23:00,16.0,-1.6,29.54,NW,321,0.0,0.0,45,0.00,,---,0.00,VWS V14.00,2013-02-13 08:23:00,
2013-02-13 03:24:00,16.0,-1.6,29.54,NW,321,0.0,0.0,45,0.00,,---,0.00,VWS V14.00,2013-02-13 08:24:00,
2013-02-13 03:25:00,16.0,-1.6,29.54,NW,321,0.0,0.0,45,0.00,,---,0.00,VWS V14.00,2013-02-13 08:25:00,
2013-02-13 03:28:00,16.0,-1.6,29.54,NW,321,0.0,0.0,45,0.00,,---,0.00,VWS V14.00,2013-02-13 08:28:00,
2013-02-13 03:29:00,16.0,-1.6,29.54,NW,321,0.0,0.0,45,0.00,,---,0.00,VWS V14.00,2013-02-13 08:29:00,
2013-02-13 03:30:00,16.0,-1.6,29.54,NW,321,0.0,0.0,45,0.00,,---,0.00,VWS V14.00,2013-02-13 08:30:00,
2013-02-13 03:33:00,16.0,-1.6,29.54,NW,321,0.0,0.0,45,0.00,,---,0.00,VWS V14.00,2013-02-13 08:33:00,
2013-02-13 03:34:00,16.0,-2.1,29.54,NW,321,0.0,0.0,44,0.00,,---,0.00,VWS V14.00,2013-02-13 08:34:00,
2013-02-13 03:35:00,16.0,-2.1,29.54,NW,321,0.0,0.0,44,0.00,,---,0.00,VWS V14.00,2013-02-13 08:35:00,
2013-02-13 03:38:00,16.0,-2.1,29.54,NW,321,0.0,0.0,44,0.00,,---,0.00,VWS V14.00,2013-02-13 08:38:00,
2013-02-13 03:39:00,16.0,-1.6,29.54,NW,321,0.0,0.0,45,0.00,,---,0.00,VWS V14.00,2013-02-13 08:39:00,
2013-02-13 03:40:00,16.2,-1.4,29.54,NW,321,0.0,0.0,45,0.00,,---,0.00,VWS V14.00,2013-02-13 08:40:00,
2013-02-13 03:43:00,16.2,-1.4,29.54,NW,321,0.0,0.0,45,0.00,,---,0.00,VWS V14.00,2013-02-13 08:43:00,
2013-02-13 03:44:00,16.2,-1.4,29.54,NW,321,0.0,0.0,45,0.00,,---,0.00,VWS V14.00,2013-02-13 08:44:00,
2013-02-13 03:45:00,16.2,-1.4,29.54,NW,321,0.0,0.0,45,0.00,,---,0.00,VWS V14.00,2013-02-13 08:45:00,
2013-02-13 03:48:00,16.2,-1.9,29.54,NW,321,0.0,0.0,44,0.00,,---,0.00,VWS V14.00,2013-02-13 08:48:00,
2013-02-13 03:49:00,16.2,-1.9,29.54,NW,321,0.0,0.0,44,0.00,,---,0.00,VWS V14.00,2013-02-13 08:49:00,
2013-02-13 03:50:00,16.2,-1.9,29.54,NW,321,0.0,0.0,44,0.00,,---,0.00,VWS V14.00,2013-02-13 08:50:00,
2013-02-13 03:53:00,16.2,-1.9,29.54,NW,321,0.0,0.0,44,0.00,,---,0.00,VWS V14.00,2013-02-13 08:53:00,
2013-02-13 03:54:00,16.2,-1.9,29.54,NW,321,0.0,0.0,44,0.00,,---,0.00,VWS V14.00,2013-02-13 08:54:00,
2013-02-13 03:56:00,16.2,-1.9,29.54,NW,321,0.0,0.0,44,0.00,,---,0.00,VWS V14.00,2013-02-13 08:56:00,
2013-02-13 03:58:00,16.2,-1.9,29.54,NW,321,0.0,0.0,44,0.00,,---,0.00,VWS V14.00,2013-02-13 08:58:00,
2013-02-13 03:59:00,16.2,-1.9,29.54,NW,321,0.0,0.0,44,0.00,,---,0.00,VWS V14.00,2013-02-13 08:59:00,
2013-02-13 04:01:00,16.2,-1.9,29.54,NW,321,0.0,0.0,44,0.00,,---,0.00,VWS V14.00,2013-02-13 09:01:00,
2013-02-13 04:04:00,16.3,-1.7,29.54,NW,321,0.0,0.0,44,0.00,,---,0.00,VWS V14.00,2013-02-13 09:04:00,
2013-02-13 04:06:00,16.3,-1.7,29.54,NW,321,0.0,0.0,44,0.00,,---,0.00,VWS V14.00,2013-02-13 09:06:00,
2013-02-13 04:09:00,16.5,-1.6,29.54,NW,321,0.0,0.0,44,0.00,,---,0.00,VWS V14.00,2013-02-13 09:09:00,
2013-02-13 04:11:00,16.5,-1.6,29.54,NW,321,0.0,0.0,44,0.00,,---,0.00,VWS V14.00,2013-02-13 09:11:00,
2013-02-13 04:14:00,16.5,-1.6,29.54,NW,321,0.0,0.0,44,0.00,,---,0.00,VWS V14.00,2013-02-13 09:14:00,
2013-02-13 04:16:00,16.5,-1.6,29.54,NW,321,0.0,0.0,44,0.00,,---,0.00,VWS V14.00,2013-02-13 09:16:00,
2013-02-13 04:19:00,16.7,-1.4,29.54,NW,321,0.0,0.0,44,0.00,,---,0.00,VWS V14.00,2013-02-13 09:19:00,
2013-02-13 04:20:00,16.7,-1.4,29.54,NW,321,0.0,0.0,44,0.00,,---,0.00,VWS V14.00,2013-02-13 09:20:00,
2013-02-13 04:21:00,16.7,-1.4,29.54,NW,321,0.0,0.0,44,0.00,,---,0.00,VWS V14.00,2013-02-13 09:21:00,
2013-02-13 04:24:00,16.7,-1.4,29.54,NW,321,0.0,0.0,44,0.00,,---,0.00,VWS V14.00,2013-02-13 09:24:00,
2013-02-13 04:25:00,16.7,-1.4,29.54,NW,321,0.0,0.0,44,0.00,,---,0.00,VWS V14.00,2013-02-13 09:25:00,
2013-02-13 04:26:00,16.7,-1.4,29.54,NW,321,0.0,0.0,44,0.00,,---,0.00,VWS V14.00,2013-02-13 09:26:00,
2013-02-13 04:29:00,16.5,-1.6,29.54,NW,321,0.0,0.0,44,0.00,,---,0.00,VWS V14.00,2013-02-13 09:29:00,
2013-02-13 04:30:00,16.7,-1.4,29.54,NW,321,0.0,0.0,44,0.00,,---,0.00,VWS V14.00,2013-02-13 09:30:00,
2013-02-13 04:31:00,16.5,-1.6,29.54,NW,321,0.0,0.0,44,0.00,,---,0.00,VWS V14.00,2013-02-13 09:31:00,
2013-02-13 04:34:00,16.5,-1.6,29.54,NW,321,0.0,0.0,44,0.00,,---,0.00,VWS V14.00,2013-02-13 09:34:00,
2013-02-13 04:35:00,16.5,-1.6,29.54,NW,321,0.0,0.0,44,0.00,,---,0.00,VWS V14.00,2013-02-13 09:35:00,
2013-02-13 04:36:00,16.5,-1.6,29.54,NW,321,0.0,0.0,44,0.00,,---,0.00,VWS V14.00,2013-02-13 09:36:00,
2013-02-13 04:39:00,16.5,-1.6,29.54,NW,321,0.0,0.0,44,0.00,,---,0.00,VWS V14.00,2013-02-13 09:39:00,
2013-02-13 04:40:00,16.5,-1.6,29.54,NW,321,0.0,0.0,44,0.00,,---,0.00,VWS V14.00,2013-02-13 09:40:00,
2013-02-13 04:41:00,16.5,-1.6,29.54,NW,321,0.0,0.0,44,0.00,,---,0.00,VWS V14.00,2013-02-13 09:41:00,
2013-02-13 04:44:00,16.3,-1.7,29.54,NW,321,0.0,0.0,44,0.00,,---,0.00,VWS V14.00,2013-02-13 09:44:00,
2013-02-13 04:45:00,16.3,-1.7,29.54,NW,321,0.0,0.0,44,0.00,,---,0.00,VWS V14.00,2013-02-13 09:45:00,
2013-02-13 04:46:00,16.2,-1.9,29.54,NW,321,0.0,0.0,44,0.00,,---,0.00,VWS V14.00,2013-02-13 09:46:00,
2013-02-13 04:49:00,16.2,-1.9,29.54,NW,321,0.0,0.0,44,0.00,,---,0.00,VWS V14.00,2013-02-13 09:49:00,
2013-02-13 04:50:00,16.2,-1.9,29.54,NW,321,0.0,0.0,44,0.00,,---,0.00,VWS V14.00,2013-02-13 09:50:00,
2013-02-13 04:51:00,16.2,-1.9,29.54,NW,321,0.0,0.0,44,0.00,,---,0.00,VWS V14.00,2013-02-13 09:51:00,
2013-02-13 04:54:00,16.2,-1.9,29.54,NW,321,0.0,0.0,44,0.00,,---,0.00,VWS V14.00,2013-02-13 09:54:00,
2013-02-13 04:55:00,16.0,-2.1,29.54,NW,321,0.0,0.0,44,0.00,,---,0.00,VWS V14.00,2013-02-13 09:55:00,
2013-02-13 04:56:00,16.0,-2.1,29.54,NW,321,0.0,0.0,44,0.00,,---,0.00,VWS V14.00,2013-02-13 09:56:00,
2013-02-13 04:59:00,16.0,-2.1,29.54,NW,321,0.0,0.0,44,0.00,,---,0.00,VWS V14.00,2013-02-13 09:59:00,
2013-02-13 05:00:00,16.0,-2.1,29.54,NW,321,0.0,0.0,44,0.00,,---,0.00,VWS V14.00,2013-02-13 10:00:00,
2013-02-13 05:01:00,16.0,-2.1,29.54,NW,321,0.0,0.0,44,0.00,,---,0.00,VWS V14.00,2013-02-13 10:01:00,
2013-02-13 05:04:00,16.0,-2.1,29.54,NW,321,0.0,0.0,44,0.00,,---,0.00,VWS V14.00,2013-02-13 10:04:00,
2013-02-13 05:05:00,16.0,-1.6,29.54,NW,321,0.0,0.0,45,0.00,,---,0.00,VWS V14.00,2013-02-13 10:05:00,
2013-02-13 05:06:00,16.0,-1.6,29.54,NW,321,0.0,0.0,45,0.00,,---,0.00,VWS V14.00,2013-02-13 10:06:00,
2013-02-13 05:07:00,16.0,-1.6,29.54,NW,321,0.0,0.0,45,0.00,,---,0.00,VWS V14.00,2013-02-13 10:07:00,
2013-02-13 05:09:00,16.0,-1.6,29.54,NW,321,0.0,0.0,45,0.00,,---,0.00,VWS V14.00,2013-02-13 10:09:00,
2013-02-13 05:10:00,16.0,-1.6,29.54,NW,321,0.0,0.0,45,0.00,,---,0.00,VWS V14.00,2013-02-13 10:10:00,
2013-02-13 05:11:00,16.0,-1.6,29.54,NW,321,0.0,0.0,45,0.00,,---,0.00,VWS V14.00,2013-02-13 10:11:00,
2013-02-13 05:12:00,16.0,-1.6,29.54,NW,321,0.0,0.0,45,0.00,,---,0.00,VWS V14.00,2013-02-13 10:12:00,
2013-02-13 05:14:00,16.0,-1.6,29.54,NW,321,0.0,0.0,45,0.00,,---,0.00,VWS V14.00,2013-02-13 10:14:00,
2013-02-13 05:15:00,16.0,-1.6,29.54,NW,321,0.0,0.0,45,0.00,,---,0.00,VWS V14.00,2013-02-13 10:15:00,
2013-02-13 05:16:00,16.0,-1.6,29.54,NW,321,0.0,0.0,45,0.00,,---,0.00,VWS V14.00,2013-02-13 10:16:00,
2013-02-13 05:17:00,16.0,-1.6,29.54,NW,321,0.0,0.0,45,0.00,,---,0.00,VWS V14.00,2013-02-13 10:17:00,
2013-02-13 05:19:00,16.0,-1.6,29.54,NW,321,0.0,0.0,45,0.00,,---,0.00,VWS V14.00,2013-02-13 10:19:00,
2013-02-13 05:20:00,16.0,-1.6,29.54,NW,321,0.0,0.0,45,0.00,,---,0.00,VWS V14.00,2013-02-13 10:20:00,
2013-02-13 05:21:00,16.2,-1.4,29.54,NW,321,0.0,0.0,45,0.00,,---,0.00,VWS V14.00,2013-02-13 10:21:00,
2013-02-13 05:22:00,16.2,-1.4,29.54,NW,321,0.0,0.0,45,0.00,,---,0.00,VWS V14.00,2013-02-13 10:22:00,
2013-02-13 05:25:00,16.2,-1.4,29.54,NW,321,0.0,0.0,45,0.00,,---,0.00,VWS V14.00,2013-02-13 10:25:00,
2013-02-13 05:26:00,16.2,-1.4,29.54,NW,321,0.0,0.0,45,0.00,,---,0.00,VWS V14.00,2013-02-13 10:26:00,
2013-02-13 05:27:00,16.3,-1.3,29.54,NW,321,0.0,0.0,45,0.00,,---,0.00,VWS V14.00,2013-02-13 10:27:00,
2013-02-13 05:30:00,16.5,-1.1,29.54,NW,321,0.0,0.0,45,0.00,,---,0.00,VWS V14.00,2013-02-13 10:30:00,
2013-02-13 05:31:00,16.5,-1.1,29.54,NW,321,0.0,0.0,45,0.00,,---,0.00,VWS V14.00,2013-02-13 10:31:00,
2013-02-13 05:32:00,16.7,-0.9,29.54,NW,321,0.0,0.0,45,0.00,,---,0.00,VWS V14.00,2013-02-13 10:32:00,
2013-02-13 05:35:00,16.9,-0.3,29.54,NW,321,0.0,0.0,46,0.00,,---,0.00,VWS V14.00,2013-02-13 10:35:00,
2013-02-13 05:36:00,17.1,-0.1,29.54,NW,321,0.0,0.0,46,0.00,,---,0.00,VWS V14.00,2013-02-13 10:36:00,
2013-02-13 05:38:00,17.2,0.0,29.54,NW,321,0.0,0.0,46,0.00,,---,0.00,VWS V14.00,2013-02-13 10:38:00,
2013-02-13 05:40:00,17.6,0.3,29.54,NW,321,0.0,0.0,46,0.00,,---,0.00,VWS V14.00,2013-02-13 10:40:00,
2013-02-13 05:41:00,17.6,0.3,29.54,NW,321,0.0,0.0,46,0.00,,---,0.00,VWS V14.00,2013-02-13 10:41:00,
2013-02-13 05:43:00,17.8,0.5,29.54,NW,321,0.0,4.0,46,0.00,,---,0.00,VWS V14.00,2013-02-13 10:43:00,
2013-02-13 05:45:00,18.1,0.9,29.54,NW,321,0.0,0.0,46,0.00,,---,0.00,VWS V14.00,2013-02-13 10:45:00,
2013-02-13 05:46:00,18.1,0.4,29.54,NW,321,0.0,4.7,45,0.00,,---,0.00,VWS V14.00,2013-02-13 10:46:00,
2013-02-13 05:48:00,18.1,0.4,29.54,NW,321,4.0,4.0,45,0.00,,---,0.00,VWS V14.00,2013-02-13 10:48:00,
2013-02-13 05:50:00,18.3,0.6,29.54,NW,321,3.4,4.0,45,0.00,,---,0.00,VWS V14.00,2013-02-13 10:50:00,
2013-02-13 05:51:00,18.5,0.7,29.54,NW,321,4.0,4.0,45,0.00,,---,0.00,VWS V14.00,2013-02-13 10:51:00,
2013-02-13 05:53:00,18.5,0.2,29.54,NW,321,4.0,4.0,44,0.00,,---,0.00,VWS V14.00,2013-02-13 10:53:00,
2013-02-13 05:55:00,18.5,0.2,29.54,NW,321,4.0,4.7,44,0.00,,---,0.00,VWS V14.00,2013-02-13 10:55:00,
2013-02-13 05:56:00,18.7,0.4,29.54,NW,321,4.7,5.4,44,0.00,,---,0.00,VWS V14.00,2013-02-13 10:56:00,
2013-02-13 05:57:00,18.7,0.4,29.54,NW,321,3.4,5.4,44,0.00,,---,0.00,VWS V14.00,2013-02-13 10:57:00,
2013-02-13 05:58:00,18.7,0.4,29.54,NW,321,4.0,4.7,44,0.00,,---,0.00,VWS V14.00,2013-02-13 10:58:00,
2013-02-13 06:01:00,19.0,0.7,29.54,NW,321,5.4,5.4,44,0.00,,---,0.00,VWS V14.00,2013-02-13 11:01:00,
2013-02-13 06:02:00,19.0,0.7,29.54,NW,321,4.0,4.0,44,0.00,,---,0.00,VWS V14.00,2013-02-13 11:02:00,
2013-02-13 06:03:00,19.0,0.7,29.54,NW,321,0.0,4.0,44,0.00,,---,0.00,VWS V14.00,2013-02-13 11:03:00,
2013-02-13 06:06:00,19.2,0.9,29.54,NW,321,0.0,4.7,44,0.00,,---,0.00,VWS V14.00,2013-02-13 11:06:00,
2013-02-13 06:07:00,19.2,0.9,29.54,NW,321,0.0,5.4,44,0.00,,---,0.00,VWS V14.00,2013-02-13 11:07:00,
2013-02-13 06:08:00,19.2,0.9,29.54,NW,321,4.0,4.7,44,0.00,,---,0.00,VWS V14.00,2013-02-13 11:08:00,
2013-02-13 06:11:00,19.4,1.1,29.54,NW,321,5.4,6.0,44,0.00,,---,0.00,VWS V14.00,2013-02-13 11:11:00,
2013-02-13 06:12:00,19.6,0.7,29.54,NW,321,5.4,6.0,43,0.00,,---,0.00,VWS V14.00,2013-02-13 11:12:00,
2013-02-13 06:13:00,19.4,0.6,29.54,NW,321,4.0,5.4,43,0.00,,---,0.00,VWS V14.00,2013-02-13 11:13:00,
2013-02-13 06:16:00,19.6,0.7,29.54,NW,321,4.0,4.0,43,0.00,,---,0.00,VWS V14.00,2013-02-13 11:16:00,
2013-02-13 06:17:00,19.6,0.7,29.54,NW,321,4.0,5.4,43,0.00,,---,0.00,VWS V14.00,2013-02-13 11:17:00,
2013-02-13 06:18:00,19.6,0.7,29.54,NW,321,3.4,4.0,43,0.00,,---,0.00,VWS V14.00,2013-02-13 11:18:00,
2013-02-13 06:21:00,19.4,0.6,29.54,NW,321,5.4,5.4,43,0.00,,---,0.00,VWS V14.00,2013-02-13 11:21:00,
2013-02-13 06:22:00,19.4,0.6,29.54,NW,321,4.0,5.4,43,0.00,,---,0.00,VWS V14.00,2013-02-13 11:22:00,
2013-02-13 06:23:00,19.4,0.6,29.54,NW,321,4.0,4.7,43,0.00,,---,0.00,VWS V14.00,2013-02-13 11:23:00,
2013-02-13 06:26:00,19.4,0.6,29.54,NW,321,6.0,6.0,43,0.00,,---,0.00,VWS V14.00,2013-02-13 11:26:00,
2013-02-13 06:27:00,19.4,0.6,29.54,NW,321,4.0,4.7,43,0.00,,---,0.00,VWS V14.00,2013-02-13 11:27:00,
2013-02-13 06:28:00,19.2,0.4,29.54,NW,321,4.7,4.7,43,0.00,,---,0.00,VWS V14.00,2013-02-13 11:28:00,
2013-02-13 06:31:00,19.2,0.4,29.54,NW,321,4.0,6.0,43,0.00,,---,0.00,VWS V14.00,2013-02-13 11:31:00,
2013-02-13 06:32:00,19.4,0.6,29.54,NW,321,3.4,6.0,43,0.00,,---,0.00,VWS V14.00,2013-02-13 11:32:00,
2013-02-13 06:33:00,19.4,0.6,29.54,NW,321,5.4,5.4,43,0.00,,---,0.00,VWS V14.00,2013-02-13 11:33:00,
2013-02-13 06:36:00,19.4,0.6,29.54,NW,321,4.0,4.0,43,0.00,,---,0.00,VWS V14.00,2013-02-13 11:36:00,
2013-02-13 06:37:00,19.4,0.6,29.54,NW,321,3.4,4.0,43,0.00,,---,0.00,VWS V14.00,2013-02-13 11:37:00,
2013-02-13 06:39:00,19.4,0.6,29.54,NW,321,3.4,6.0,43,0.00,,---,0.00,VWS V14.00,2013-02-13 11:39:00,
2013-02-13 06:41:00,19.6,0.7,29.54,NW,321,4.0,5.4,43,0.00,,---,0.00,VWS V14.00,2013-02-13 11:41:00,
2013-02-13 06:42:00,19.4,0.6,29.54,NW,321,3.4,4.7,43,0.00,,---,0.00,VWS V14.00,2013-02-13 11:42:00,
2013-02-13 06:44:00,19.4,0.6,29.54,NW,321,4.0,4.0,43,0.00,,---,0.00,VWS V14.00,2013-02-13 11:44:00,
2013-02-13 06:46:00,19.6,0.7,29.54,NW,321,4.7,4.7,43,0.00,,---,0.00,VWS V14.00,2013-02-13 11:46:00,
2013-02-13 06:47:00,19.6,0.7,29.54,NW,321,4.0,4.0,43,0.00,,---,0.00,VWS V14.00,2013-02-13 11:47:00,
2013-02-13 06:49:00,19.6,0.7,29.54,NW,321,4.7,4.7,43,0.00,,---,0.00,VWS V14.00,2013-02-13 11:49:00,
2013-02-13 06:51:00,19.6,0.2,29.54,NW,321,4.0,4.0,42,0.00,,---,0.00,VWS V14.00,2013-02-13 11:51:00,
2013-02-13 06:52:00,19.6,0.2,29.54,NW,321,4.0,4.0,42,0.00,,---,0.00,VWS V14.00,2013-02-13 11:52:00,
2013-02-13 06:54:00,19.6,0.7,29.54,NW,321,0.0,4.0,43,0.00,,---,0.00,VWS V14.00,2013-02-13 11:54:00,
2013-02-13 06:56:00,19.6,0.7,29.54,NW,321,3.4,4.0,43,0.00,,---,0.00,VWS V14.00,2013-02-13 11:56:00,
2013-02-13 06:57:00,19.6,0.7,29.54,NW,321,3.4,3.4,43,0.00,,---,0.00,VWS V14.00,2013-02-13 11:57:00,
2013-02-13 06:58:00,19.6,0.7,29.54,NW,321,4.0,4.7,43,0.00,,---,0.00,VWS V14.00,2013-02-13 11:58:00,
2013-02-13 06:59:00,19.6,0.7,29.54,NW,321,4.0,4.0,43,0.00,,---,0.00,VWS V14.00,2013-02-13 11:59:00,
2013-02-13 07:01:00,19.6,0.7,29.54,NW,321,4.0,4.0,43,0.00,,---,0.00,VWS V14.00,2013-02-13 12:01:00,
2013-02-13 07:02:00,19.4,0.6,29.54,NW,321,3.4,4.0,43,0.00,,---,0.00,VWS V14.00,2013-02-13 12:02:00,
2013-02-13 07:03:00,19.4,0.6,29.54,NW,321,4.0,4.0,43,0.00,,---,0.00,VWS V14.00,2013-02-13 12:03:00,
2013-02-13 07:04:00,19.4,0.6,29.54,NW,321,0.0,4.0,43,0.00,,---,0.00,VWS V14.00,2013-02-13 12:04:00,
2013-02-13 07:07:00,19.2,0.4,29.54,NW,321,4.0,4.7,43,0.00,,---,0.00,VWS V14.00,2013-02-13 12:07:00,
2013-02-13 07:08:00,19.2,0.9,29.54,NW,321,0.0,4.0,44,0.00,,---,0.00,VWS V14.00,2013-02-13 12:08:00,
2013-02-13 07:09:00,19.2,0.9,29.54,NW,321,0.0,0.0,44,0.00,,---,0.00,VWS V14.00,2013-02-13 12:09:00,
2013-02-13 07:12:00,19.2,0.9,29.54,NW,321,4.0,4.0,44,0.00,,---,0.00,VWS V14.00,2013-02-13 12:12:00,
2013-02-13 07:13:00,19.0,0.7,29.54,NW,321,4.7,4.7,44,0.00,,---,0.00,VWS V14.00,2013-02-13 12:13:00,
2013-02-13 07:14:00,19.2,0.9,29.54,NW,321,4.0,4.7,44,0.00,,---,0.00,VWS V14.00,2013-02-13 12:14:00,
2013-02-13 07:17:00,19.0,0.7,29.54,NW,321,4.0,4.0,44,0.00,,---,0.00,VWS V14.00,2013-02-13 12:17:00,
2013-02-13 07:19:00,19.0,0.7,29.54,NW,321,3.4,4.0,44,0.00,,---,0.00,VWS V14.00,2013-02-13 12:19:00,
2013-02-13 07:22:00,18.9,0.6,29.54,NW,321,4.0,4.0,44,0.00,,---,0.00,VWS V14.00,2013-02-13 12:22:00,
2013-02-13 07:24:00,18.7,0.4,29.54,NW,321,4.0,4.7,44,0.00,,---,0.00,VWS V14.00,2013-02-13 12:24:00,
2013-02-13 07:27:00,18.7,0.4,29.54,NW,321,0.0,4.0,44,0.00,,---,0.00,VWS V14.00,2013-02-13 12:27:00,
2013-02-13 07:28:00,18.7,0.4,29.54,NW,321,4.0,4.0,44,0.00,,---,0.00,VWS V14.00,2013-02-13 12:28:00,
2013-02-13 07:29:00,18.7,0.4,29.54,NW,321,4.0,4.0,44,0.00,,---,0.00,VWS V14.00,2013-02-13 12:29:00,
2013-02-13 07:32:00,18.5,0.2,29.54,NW,321,4.7,4.7,44,0.00,,---,0.00,VWS V14.00,2013-02-13 12:32:00,
2013-02-13 07:33:00,18.5,0.2,29.54,NW,321,4.7,6.0,44,0.00,,---,0.00,VWS V14.00,2013-02-13 12:33:00,
2013-02-13 07:34:00,18.5,0.2,29.54,NW,321,4.0,4.0,44,0.00,,---,0.00,VWS V14.00,2013-02-13 12:34:00,
2013-02-13 07:37:00,18.5,0.2,29.54,NW,321,4.7,4.7,44,0.00,,---,0.00,VWS V14.00,2013-02-13 12:37:00,
2013-02-13 07:38:00,18.5,0.2,29.54,NW,321,3.4,4.7,44,0.00,,---,0.00,VWS V14.00,2013-02-13 12:38:00,
2013-02-13 07:39:00,18.3,0.1,29.54,NW,321,3.4,4.0,44,0.00,,---,0.00,VWS V14.00,2013-02-13 12:39:00,
2013-02-13 07:42:00,18.5,0.2,29.54,NW,321,4.0,4.7,44,0.00,,---,0.00,VWS V14.00,2013-02-13 12:42:00,
2013-02-13 07:43:00,18.5,0.2,29.54,NW,321,4.0,4.0,44,0.00,,---,0.00,VWS V14.00,2013-02-13 12:43:00,
2013-02-13 07:44:00,18.3,0.1,29.54,NW,321,4.0,4.7,44,0.00,,---,0.00,VWS V14.00,2013-02-13 12:44:00,
2013-02-13 07:47:00,18.3,0.1,29.54,NW,321,4.0,5.4,44,0.00,,---,0.00,VWS V14.00,2013-02-13 12:47:00,
2013-02-13 07:48:00,18.5,0.2,29.54,NW,321,4.7,5.4,44,0.00,,---,0.00,VWS V14.00,2013-02-13 12:48:00,
2013-02-13 07:49:00,18.5,0.2,29.54,NW,321,4.7,4.7,44,0.00,,---,0.00,VWS V14.00,2013-02-13 12:49:00,
2013-02-13 07:50:00,18.5,0.2,29.54,NW,321,4.0,4.7,44,0.00,,---,0.00,VWS V14.00,2013-02-13 12:50:00,
2013-02-13 07:52:00,18.5,0.2,29.54,NW,321,4.7,4.7,44,0.00,,---,0.00,VWS V14.00,2013-02-13 12:52:00,
2013-02-13 07:54:00,18.5,0.2,29.54,NW,321,5.4,5.4,44,0.00,,---,0.00,VWS V14.00,2013-02-13 12:54:00,
2013-02-13 07:55:00,18.5,0.2,29.54,NW,321,4.0,5.4,44,0.00,,---,0.00,VWS V14.00,2013-02-13 12:55:00,
2013-02-13 07:57:00,18.5,0.2,29.54,NW,321,4.0,4.7,44,0.00,,---,0.00,VWS V14.00,2013-02-13 12:57:00,
2013-02-13 07:59:00,18.5,0.2,29.54,NW,321,4.7,5.4,44,0.00,,---,0.00,VWS V14.00,2013-02-13 12:59:00,
2013-02-13 08:00:00,18.5,0.2,29.54,NW,321,4.7,5.4,44,0.00,,---,0.00,VWS V14.00,2013-02-13 13:00:00,
2013-02-13 08:03:00,18.5,0.2,29.54,NW,321,8.1,8.1,44,0.00,,---,0.00,VWS V14.00,2013-02-13 13:03:00,
2013-02-13 08:04:00,18.5,0.2,29.54,NW,321,4.0,8.1,44,0.00,,---,0.00,VWS V14.00,2013-02-13 13:04:00,
2013-02-13 08:05:00,18.5,0.2,29.54,NW,321,5.4,5.4,44,0.00,,---,0.00,VWS V14.00,2013-02-13 13:05:00,
2013-02-13 08:08:00,18.5,0.2,29.51,NW,321,4.7,4.7,44,0.00,,---,0.00,VWS V14.00,2013-02-13 13:08:00,
2013-02-13 08:09:00,18.5,0.2,29.51,NW,321,4.7,6.0,44,0.00,,---,0.00,VWS V14.00,2013-02-13 13:09:00,
2013-02-13 08:10:00,18.5,0.2,29.51,NW,321,4.7,4.7,44,0.00,,---,0.00,VWS V14.00,2013-02-13 13:10:00,
2013-02-13 08:13:00,18.5,0.2,29.51,NW,321,5.4,5.4,44,0.00,,---,0.00,VWS V14.00,2013-02-13 13:13:00,
2013-02-13 08:14:00,18.5,0.2,29.51,NW,321,4.7,4.7,44,0.00,,---,0.00,VWS V14.00,2013-02-13 13:14:00,
2013-02-13 08:15:00,18.5,0.2,29.51,NW,321,4.0,4.7,44,0.00,,---,0.00,VWS V14.00,2013-02-13 13:15:00,
2013-02-13 08:18:00,18.7,0.4,29.51,NW,321,4.0,5.4,44,0.00,,---,0.00,VWS V14.00,2013-02-13 13:18:00,
2013-02-13 08:19:00,18.7,0.4,29.51,NW,321,4.7,5.4,44,0.00,,---,0.00,VWS V14.00,2013-02-13 13:19:00,
2013-02-13 08:20:00,18.9,0.6,29.51,NW,321,5.4,6.0,44,0.00,,---,0.00,VWS V14.00,2013-02-13 13:20:00,
2013-02-13 08:23:00,19.0,0.7,29.51,NW,321,5.4,5.4,44,0.00,,---,0.00,VWS V14.00,2013-02-13 13:23:00,
2013-02-13 08:24:00,19.2,0.9,29.51,NW,321,4.7,4.7,44,0.00,,---,0.00,VWS V14.00,2013-02-13 13:24:00,
2013-02-13 08:25:00,19.2,0.9,29.51,NW,321,4.0,4.7,44,0.00,,---,0.00,VWS V14.00,2013-02-13 13:25:00,
2013-02-13 08:28:00,19.4,0.6,29.51,NW,321,4.7,5.4,43,0.00,,---,0.00,VWS V14.00,2013-02-13 13:28:00,
2013-02-13 08:29:00,19.6,0.7,29.51,NW,321,4.0,5.4,43,0.00,,---,0.00,VWS V14.00,2013-02-13 13:29:00,
2013-02-13 08:30:00,19.6,0.7,29.51,NW,321,4.7,5.4,43,0.00,,---,0.00,VWS V14.00,2013-02-13 13:30:00,
2013-02-13 08:33:00,19.6,-0.3,29.51,NW,321,5.4,6.0,41,0.00,,---,0.00,VWS V14.00,2013-02-13 13:33:00,
2013-02-13 08:34:00,19.6,0.2,29.51,NW,321,5.4,5.4,42,0.00,,---,0.00,VWS V14.00,2013-02-13 13:34:00,
2013-02-13 08:35:00,19.6,0.2,29.51,NW,321,5.4,5.4,42,0.00,,---,0.00,VWS V14.00,2013-02-13 13:35:00,
2013-02-13 08:38:00,19.8,0.4,29.51,NW,321,5.4,5.4,42,0.00,,---,0.00,VWS V14.00,2013-02-13 13:38:00,
2013-02-13 08:39:00,19.9,0.6,29.51,NW,321,4.7,4.7,42,0.00,,---,0.00,VWS V14.00,2013-02-13 13:39:00,
2013-02-13 08:40:00,19.8,-0.1,29.51,NW,321,4.0,4.7,41,0.00,,---,0.00,VWS V14.00,2013-02-13 13:40:00,
2013-02-13 08:43:00,19.9,-0.5,29.51,NW,321,4.7,4.7,40,0.00,,---,0.00,VWS V14.00,2013-02-13 13:43:00,
2013-02-13 08:44:00,19.9,-0.5,29.51,NW,321,4.0,4.0,40,0.00,,---,0.00,VWS V14.00,2013-02-13 13:44:00,
2013-02-13 08:45:00,19.9,-0.5,29.51,NW,321,4.0,5.4,40,0.00,,---,0.00,VWS V14.00,2013-02-13 13:45:00,
2013-02-13 08:48:00,20.1,0.2,29.51,NW,321,4.7,4.7,41,0.00,,---,0.00,VWS V14.00,2013-02-13 13:48:00,
2013-02-13 08:50:00,20.3,-0.7,29.51,NW,321,4.0,4.7,39,0.00,,---,0.00,VWS V14.00,2013-02-13 13:50:00,
2013-02-13 08:53:00,20.3,-0.7,29.51,NW,321,4.0,4.7,39,0.00,,---,0.00,VWS V14.00,2013-02-13 13:53:00,
2013-02-13 08:55:00,20.3,0.4,29.51,NW,321,5.4,5.4,41,0.00,,---,0.00,VWS V14.00,2013-02-13 13:55:00,
2013-02-13 08:56:00,20.5,0.5,29.51,NW,321,4.0,5.4,41,0.00,,---,0.00,VWS V14.00,2013-02-13 13:56:00,
2013-02-13 08:58:00,20.8,-0.2,29.51,NW,321,4.0,4.0,39,0.00,,---,0.00,VWS V14.00,2013-02-13 13:58:00,
2013-02-13 09:00:00,21.0,-1.2,29.51,NW,321,4.0,4.7,37,0.00,,---,0.00,VWS V14.00,2013-02-13 14:00:00,
2013-02-13 09:01:00,21.2,-1.6,29.51,NW,321,4.7,4.7,36,0.00,,---,0.00,VWS V14.00,2013-02-13 14:01:00,
2013-02-13 09:03:00,21.6,-2.5,29.51,NW,321,4.7,6.0,34,0.00,,---,0.00,VWS V14.00,2013-02-13 14:03:00,
2013-02-13 09:05:00,21.6,-3.1,29.51,NW,321,4.7,6.0,33,0.00,,---,0.00,VWS V14.00,2013-02-13 14:05:00,
2013-02-13 09:06:00,21.6,-2.5,29.51,NW,321,5.4,5.4,34,0.00,,---,0.00,VWS V14.00,2013-02-13 14:06:00,
2013-02-13 09:08:00,21.2,-2.2,29.51,NW,321,4.7,4.7,35,0.00,,---,0.00,VWS V14.00,2013-02-13 14:08:00,
2013-02-13 09:10:00,21.2,-2.2,29.51,NW,321,5.4,5.4,35,0.00,,---,0.00,VWS V14.00,2013-02-13 14:10:00,
2013-02-13 09:11:00,21.2,-1.0,29.51,NW,321,4.0,6.0,37,0.00,,---,0.00,VWS V14.00,2013-02-13 14:11:00,
2013-02-13 09:13:00,21.2,-1.0,29.51,NW,321,3.4,6.0,37,0.00,,---,0.00,VWS V14.00,2013-02-13 14:13:00,
2013-02-13 09:15:00,21.2,-0.4,29.51,NW,321,4.0,4.0,38,0.00,,---,0.00,VWS V14.00,2013-02-13 14:15:00,
2013-02-13 09:16:00,21.2,-0.4,29.51,NW,321,5.4,5.4,38,0.00,,---,0.00,VWS V14.00,2013-02-13 14:16:00,
2013-02-13 09:18:00,21.4,-0.8,29.51,NW,321,4.0,4.7,37,0.00,,---,0.00,VWS V14.00,2013-02-13 14:18:00,
2013-02-13 09:20:00,21.6,-1.2,29.51,NW,321,4.7,4.7,36,0.00,,---,0.00,VWS V14.00,2013-02-13 14:20:00,
2013-02-13 09:21:00,21.6,-1.2,29.51,NW,321,3.4,4.7,36,0.00,,---,0.00,VWS V14.00,2013-02-13 14:21:00,
2013-02-13 09:23:00,21.7,-1.1,29.51,NW,321,4.0,6.0,36,0.00,,---,0.00,VWS V14.00,2013-02-13 14:23:00,
2013-02-13 09:25:00,21.7,-1.1,29.51,NW,321,4.0,4.7,36,0.00,,---,0.00,VWS V14.00,2013-02-13 14:25:00,
2013-02-13 09:26:00,21.7,-0.5,29.51,NW,321,4.7,4.7,37,0.00,,---,0.00,VWS V14.00,2013-02-13 14:26:00,
2013-02-13 09:28:00,21.7,-1.1,29.51,NW,321,4.7,5.4,36,0.00,,---,0.00,VWS V14.00,2013-02-13 14:28:00,
2013-02-13 09:30:00,21.7,-0.5,29.51,NW,321,6.0,6.0,37,0.00,,---,0.00,VWS V14.00,2013-02-13 14:30:00,
2013-02-13 09:31:00,21.7,-0.5,29.51,NW,321,6.0,6.0,37,0.00,,---,0.00,VWS V14.00,2013-02-13 14:31:00,
2013-02-13 09:34:00,21.9,-0.3,29.51,NW,321,6.0,6.0,37,0.00,,---,0.00,VWS V14.00,2013-02-13 14:34:00,
2013-02-13 09:35:00,22.1,-0.8,29.51,NW,321,5.4,5.4,36,0.00,,---,0.00,VWS V14.00,2013-02-13 14:35:00,
2013-02-13 09:36:00,22.1,-0.8,29.51,NW,321,5.4,5.4,36,0.00,,---,0.00,VWS V14.00,2013-02-13 14:36:00,
2013-02-13 09:39:00,22.3,-0.6,29.51,NW,321,4.0,5.4,36,0.00,,---,0.00,VWS V14.00,2013-02-13 14:39:00,
2013-02-13 09:41:00,22.3,-0.6,29.51,NW,321,5.4,5.4,36,0.00,,---,0.00,VWS V14.00,2013-02-13 14:41:00,
2013-02-13 09:44:00,22.5,-0.4,29.51,NW,321,5.4,6.0,36,0.00,,---,0.00,VWS V14.00,2013-02-13 14:44:00,
2013-02-13 09:46:00,22.6,-0.9,29.51,NW,321,4.7,6.0,35,0.00,,---,0.00,VWS V14.00,2013-02-13 14:46:00,
2013-02-13 09:49:00,23.5,-0.7,29.51,NW,321,4.0,4.7,34,0.00,,---,0.00,VWS V14.00,2013-02-13 14:49:00,
2013-02-13 09:51:00,23.9,-1.0,29.51,NW,321,4.0,4.7,33,0.00,,---,0.00,VWS V14.00,2013-02-13 14:51:00,
2013-02-13 09:52:00,24.1,-0.9,29.51,NW,321,4.7,4.7,33,0.00,,---,0.00,VWS V14.00,2013-02-13 14:52:00,
2013-02-13 09:54:00,23.9,-1.0,29.51,NW,321,4.7,4.7,33,0.00,,---,0.00,VWS V14.00,2013-02-13 14:54:00,
2013-02-13 09:56:00,24.1,-1.5,29.51,NW,321,5.4,5.4,32,0.00,,---,0.00,VWS V14.00,2013-02-13 14:56:00,
2013-02-13 09:57:00,24.6,-1.0,29.51,NW,321,4.0,5.4,32,0.00,,---,0.00,VWS V14.00,2013-02-13 14:57:00,
2013-02-13 09:59:00,25.2,-1.2,29.51,NW,321,4.7,5.4,31,0.00,,---,0.00,VWS V14.00,2013-02-13 14:59:00,
2013-02-13 10:01:00,25.3,-2.5,29.51,NW,321,4.7,5.4,29,0.00,,---,0.00,VWS V14.00,2013-02-13 15:01:00,
2013-02-13 10:02:00,25.7,-2.2,29.51,NW,321,3.4,3.4,29,0.00,,---,0.00,VWS V14.00,2013-02-13 15:02:00,
2013-02-13 10:04:00,26.1,-1.8,29.51,NW,321,4.0,5.4,29,0.00,,---,0.00,VWS V14.00,2013-02-13 15:04:00,
2013-02-13 10:06:00,26.4,-3.8,29.51,NW,321,3.4,4.0,26,0.00,,---,0.00,VWS V14.00,2013-02-13 15:06:00,
2013-02-13 10:07:00,26.6,-3.7,29.51,NW,321,4.7,5.4,26,0.00,,---,0.00,VWS V14.00,2013-02-13 15:07:00,
2013-02-13 10:09:00,27.1,-3.2,29.51,NW,321,3.4,4.7,26,0.00,,---,0.00,VWS V14.00,2013-02-13 15:09:00,
2013-02-13 10:11:00,27.0,-3.3,29.51,NW,321,4.0,4.0,26,0.00,,---,0.00,VWS V14.00,2013-02-13 15:11:00,
2013-02-13 10:12:00,27.1,-3.2,29.51,NW,321,0.0,4.0,26,0.00,,---,0.00,VWS V14.00,2013-02-13 15:12:00,
2013-02-13 10:14:00,27.0,-3.3,29.51,NW,321,4.0,5.4,26,0.00,,---,0.00,VWS V14.00,2013-02-13 15:14:00,
2013-02-13 10:16:00,27.0,-3.3,29.51,NW,321,4.7,4.7,26,0.00,,---,0.00,VWS V14.00,2013-02-13 15:16:00,
2013-02-13 10:17:00,27.0,-3.3,29.51,NW,321,4.0,4.0,26,0.00,,---,0.00,VWS V14.00,2013-02-13 15:17:00,
2013-02-13 10:19:00,27.0,-1.8,29.51,NW,321,3.4,5.4,28,0.00,,---,0.00,VWS V14.00,2013-02-13 15:19:00,
2013-02-13 10:21:00,26.8,-3.5,29.51,NW,321,4.0,4.7,26,0.00,,---,0.00,VWS V14.00,2013-02-13 15:21:00,
2013-02-13 10:22:00,26.8,-1.9,29.51,NW,321,3.4,4.7,28,0.00,,---,0.00,VWS V14.00,2013-02-13 15:22:00,
2013-02-13 10:25:00,26.6,-1.4,29.51,NW,321,5.4,5.4,29,0.00,,---,0.00,VWS V14.00,2013-02-13 15:25:00,
2013-02-13 10:26:00,26.6,-1.4,29.51,NW,321,3.4,4.0,29,0.00,,---,0.00,VWS V14.00,2013-02-13 15:26:00,
2013-02-13 10:27:00,26.6,-1.4,29.51,NW,321,4.0,4.0,29,0.00,,---,0.00,VWS V14.00,2013-02-13 15:27:00,
2013-02-13 10:30:00,26.6,-1.4,29.51,NW,321,4.0,4.7,29,0.00,,---,0.00,VWS V14.00,2013-02-13 15:30:00,
2013-02-13 10:31:00,27.0,-1.8,29.51,NW,321,4.7,4.7,28,0.00,,---,0.00,VWS V14.00,2013-02-13 15:31:00,
2013-02-13 10:32:00,27.0,-1.8,29.51,NW,321,3.4,4.7,28,0.00,,---,0.00,VWS V14.00,2013-02-13 15:32:00,
2013-02-13 10:35:00,27.1,-1.6,29.51,NW,321,4.0,5.4,28,0.00,,---,0.00,VWS V14.00,2013-02-13 15:35:00,
2013-02-13 10:36:00,27.1,-1.6,29.48,NW,321,4.0,4.0,28,0.00,,---,0.00,VWS V14.00,2013-02-13 15:36:00,
2013-02-13 10:37:00,27.1,-3.2,29.48,NW,321,4.7,4.7,26,0.00,,---,0.00,VWS V14.00,2013-02-13 15:37:00,
2013-02-13 10:40:00,27.3,-1.5,29.48,NW,321,0.0,0.0,28,0.00,,---,0.00,VWS V14.00,2013-02-13 15:40:00,
2013-02-13 10:41:00,27.1,-1.6,29.48,NW,321,4.0,4.7,28,0.00,,---,0.00,VWS V14.00,2013-02-13 15:41:00,
2013-02-13 10:43:00,27.3,-1.5,29.48,NW,321,0.0,0.0,28,0.00,,---,0.00,VWS V14.00,2013-02-13 15:43:00,
2013-02-13 10:45:00,27.5,-1.3,29.48,NW,321,4.0,4.0,28,0.00,,---,0.00,VWS V14.00,2013-02-13 15:45:00,
2013-02-13 10:46:00,27.5,-2.9,29.48,NW,321,4.7,4.7,26,0.00,,---,0.00,VWS V14.00,2013-02-13 15:46:00,
2013-02-13 10:47:00,27.5,-2.9,29.48,NW,321,4.0,4.7,26,0.00,,---,0.00,VWS V14.00,2013-02-13 15:47:00,
2013-02-13 10:48:00,27.7,-2.7,29.48,NW,321,5.4,5.4,26,0.00,,---,0.00,VWS V14.00,2013-02-13 15:48:00,
2013-02-13 10:50:00,27.9,-2.6,29.51,NW,321,4.7,4.7,26,0.00,,---,0.00,VWS V14.00,2013-02-13 15:50:00,
2013-02-13 10:52:00,27.9,-2.6,29.51,NW,321,4.0,6.0,26,0.00,,---,0.00,VWS V14.00,2013-02-13 15:52:00,
2013-02-13 10:53:00,28.0,-2.4,29.51,NW,321,4.0,4.0,26,0.00,,---,0.00,VWS V14.00,2013-02-13 15:53:00,
2013-02-13 10:55:00,27.9,-2.6,29.51,NW,321,6.0,6.0,26,0.00,,---,0.00,VWS V14.00,2013-02-13 15:55:00,
2013-02-13 10:57:00,28.0,-2.4,29.51,NW,321,4.0,5.4,26,0.00,,---,0.00,VWS V14.00,2013-02-13 15:57:00,
2013-02-13 10:58:00,28.0,-2.4,29.51,NW,321,6.0,6.0,26,0.00,,---,0.00,VWS V14.00,2013-02-13 15:58:00,
2013-02-13 11:00:00,28.2,-2.2,29.51,NW,321,0.0,3.4,26,0.00,,---,0.00,VWS V14.00,2013-02-13 16:00:00,
2013-02-13 11:02:00,28.2,-2.2,29.51,NW,321,0.0,0.0,26,0.00,,---,0.00,VWS V14.00,2013-02-13 16:02:00,
2013-02-13 11:03:00,28.2,-2.2,29.51,NW,321,0.0,0.0,26,0.00,,---,0.00,VWS V14.00,2013-02-13 16:03:00,
2013-02-13 11:05:00,28.4,-0.5,29.51,NW,321,0.0,0.0,28,0.00,,---,0.00,VWS V14.00,2013-02-13 16:05:00,
2013-02-13 11:07:00,28.6,-2.8,29.51,NW,321,0.0,0.0,25,0.00,,---,0.00,VWS V14.00,2013-02-13 16:07:00,
2013-02-13 11:08:00,28.9,-0.1,29.51,NW,321,0.0,4.7,28,0.00,,---,0.00,VWS V14.00,2013-02-13 16:08:00,
2013-02-13 11:10:00,28.8,-2.6,29.51,NW,321,4.0,4.0,25,0.00,,---,0.00,VWS V14.00,2013-02-13 16:10:00,
2013-02-13 11:12:00,28.8,-2.6,29.51,NW,321,0.0,3.4,25,0.00,,---,0.00,VWS V14.00,2013-02-13 16:12:00,
2013-02-13 11:13:00,29.1,-2.3,29.51,NW,321,0.0,4.0,25,0.00,,---,0.00,VWS V14.00,2013-02-13 16:13:00,
2013-02-13 11:15:00,29.3,-2.2,29.51,NW,321,0.0,4.0,25,0.00,,---,0.00,VWS V14.00,2013-02-13 16:15:00,
2013-02-13 11:17:00,29.5,-2.0,29.51,NW,321,0.0,4.0,25,0.00,,---,0.00,VWS V14.00,2013-02-13 16:17:00,
2013-02-13 11:18:00,29.5,-2.0,29.51,NW,321,0.0,0.0,25,0.00,,---,0.00,VWS V14.00,2013-02-13 16:18:00,
2013-02-13 11:20:00,29.7,-1.8,29.51,NW,321,0.0,0.0,25,0.00,,---,0.00,VWS V14.00,2013-02-13 16:20:00,
2013-02-13 11:22:00,29.5,-2.0,29.51,NW,321,0.0,0.0,25,0.00,,---,0.00,VWS V14.00,2013-02-13 16:22:00,
2013-02-13 11:23:00,29.7,-1.8,29.51,NW,321,0.0,3.4,25,0.00,,---,0.00,VWS V14.00,2013-02-13 16:23:00,
2013-02-13 11:25:00,30.0,-1.5,29.51,NW,321,0.0,0.0,25,0.00,,---,0.00,VWS V14.00,2013-02-13 16:25:00,
2013-02-13 11:27:00,30.2,-1.4,29.51,NW,321,0.0,0.0,25,0.00,,---,0.00,VWS V14.00,2013-02-13 16:27:00,
2013-02-13 11:28:00,30.2,-1.4,29.51,NW,321,0.0,0.0,25,0.00,,---,0.00,VWS V14.00,2013-02-13 16:28:00,
2013-02-13 11:30:00,30.4,-1.2,29.51,NW,321,0.0,0.0,25,0.00,,---,0.00,VWS V14.00,2013-02-13 16:30:00,
2013-02-13 11:32:00,31.1,-0.6,29.51,NW,321,0.0,3.4,25,0.00,,---,0.00,VWS V14.00,2013-02-13 16:32:00,
2013-02-13 11:33:00,31.5,-0.3,29.51,NW,321,0.0,3.4,25,0.00,,---,0.00,VWS V14.00,2013-02-13 16:33:00,
2013-02-13 11:34:00,32.0,0.2,29.51,NW,321,0.0,0.0,25,0.00,,---,0.00,VWS V14.00,2013-02-13 16:34:00,
2013-02-13 11:35:00,33.4,1.4,29.51,NW,321,0.0,0.0,25,0.00,,---,0.00,VWS V14.00,2013-02-13 16:35:00,
2013-02-13 11:37:00,34.0,-0.9,29.51,NW,321,0.0,0.0,22,0.00,,---,0.00,VWS V14.00,2013-02-13 16:37:00,
2013-02-13 11:38:00,34.5,-0.4,29.51,NW,321,0.0,0.0,22,0.00,,---,0.00,VWS V14.00,2013-02-13 16:38:00,
2013-02-13 11:39:00,35.2,0.2,29.51,NW,321,0.0,0.0,22,0.00,,---,0.00,VWS V14.00,2013-02-13 16:39:00,
2013-02-13 11:40:00,35.4,0.4,29.51,NW,321,0.0,0.0,22,0.00,,---,0.00,VWS V14.00,2013-02-13 16:40:00,
2013-02-13 11:42:00,36.0,0.8,29.51,NW,321,0.0,0.0,22,0.00,,---,0.00,VWS V14.00,2013-02-13 16:42:00,
2013-02-13 11:43:00,36.0,0.8,29.51,NW,321,0.0,0.0,22,0.00,,---,0.00,VWS V14.00,2013-02-13 16:43:00,
2013-02-13 11:44:00,36.1,1.0,29.51,NW,321,0.0,0.0,22,0.00,,---,0.00,VWS V14.00,2013-02-13 16:44:00,
2013-02-13 11:46:00,36.9,1.6,29.51,NW,321,0.0,0.0,22,0.00,,---,0.00,VWS V14.00,2013-02-13 16:46:00,
2013-02-13 11:47:00,36.5,1.3,29.51,NW,321,0.0,0.0,22,0.00,,---,0.00,VWS V14.00,2013-02-13 16:47:00,
2013-02-13 11:48:00,36.5,1.3,29.51,NW,321,0.0,0.0,22,0.00,,---,0.00,VWS V14.00,2013-02-13 16:48:00,
2013-02-13 11:49:00,37.0,1.7,29.51,NW,321,0.0,0.0,22,0.00,,---,0.00,VWS V14.00,2013-02-13 16:49:00,
2013-02-13 11:51:00,37.6,1.2,29.51,NW,321,0.0,0.0,21,0.00,,---,0.00,VWS V14.00,2013-02-13 16:51:00,
2013-02-13 11:52:00,37.4,1.0,29.51,NW,321,0.0,0.0,21,0.00,,---,0.00,VWS V14.00,2013-02-13 16:52:00,
2013-02-13 11:53:00,37.4,1.0,29.51,NW,321,0.0,0.0,21,0.00,,---,0.00,VWS V14.00,2013-02-13 16:53:00,
2013-02-13 11:54:00,37.0,1.7,29.51,NW,321,0.0,0.0,22,0.00,,---,0.00,VWS V14.00,2013-02-13 16:54:00,
2013-02-13 11:56:00,37.6,1.2,29.51,NW,321,0.0,0.0,21,0.00,,---,0.00,VWS V14.00,2013-02-13 16:56:00,
2013-02-13 11:57:00,37.8,1.4,29.51,NW,321,0.0,0.0,21,0.00,,---,0.00,VWS V14.00,2013-02-13 16:57:00,
2013-02-13 11:58:00,38.1,1.6,29.51,NW,321,0.0,0.0,21,0.00,,---,0.00,VWS V14.00,2013-02-13 16:58:00,
2013-02-13 11:59:00,37.6,1.2,29.51,NW,321,0.0,0.0,21,0.00,,---,0.00,VWS V14.00,2013-02-13 16:59:00,
2013-02-13 12:01:00,36.9,1.6,29.51,NW,321,0.0,0.0,22,0.00,,---,0.00,VWS V14.00,2013-02-13 17:01:00,
2013-02-13 12:02:00,37.4,1.0,29.51,NW,321,0.0,0.0,21,0.00,,---,0.00,VWS V14.00,2013-02-13 17:02:00,
2013-02-13 12:03:00,37.4,1.0,29.51,NW,321,0.0,0.0,21,0.00,,---,0.00,VWS V14.00,2013-02-13 17:03:00,
2013-02-13 12:04:00,37.4,1.0,29.51,NW,321,0.0,0.0,21,0.00,,---,0.00,VWS V14.00,2013-02-13 17:04:00,
2013-02-13 12:06:00,37.4,1.0,29.51,WNW,294,5.4,5.4,21,0.00,,---,0.00,VWS V14.00,2013-02-13 17:06:00,
2013-02-13 12:08:00,36.5,1.3,29.51,WNW,294,4.0,4.7,22,0.00,,---,0.00,VWS V14.00,2013-02-13 17:08:00,
2013-02-13 12:09:00,36.3,1.1,29.51,WNW,294,3.4,3.4,22,0.00,,---,0.00,VWS V14.00,2013-02-13 17:09:00,
2013-02-13 12:11:00,35.1,0.1,29.51,WNW,294,0.0,4.0,22,0.00,,---,0.00,VWS V14.00,2013-02-13 17:11:00,
2013-02-13 12:13:00,35.1,0.1,29.51,WNW,294,0.0,0.0,22,0.00,,---,0.00,VWS V14.00,2013-02-13 17:13:00,
2013-02-13 12:14:00,34.7,-0.2,29.51,WNW,294,0.0,0.0,22,0.00,,---,0.00,VWS V14.00,2013-02-13 17:14:00,
2013-02-13 12:16:00,34.5,-0.4,29.51,WNW,294,0.0,0.0,22,0.00,,---,0.00,VWS V14.00,2013-02-13 17:16:00,
2013-02-13 12:18:00,34.9,-0.1,29.51,WNW,294,0.0,0.0,22,0.00,,---,0.00,VWS V14.00,2013-02-13 17:18:00,
2013-02-13 12:19:00,35.8,0.7,29.51,WNW,294,0.0,0.0,22,0.00,,---,0.00,VWS V14.00,2013-02-13 17:19:00,
2013-02-13 12:21:00,36.9,1.6,29.51,WNW,294,0.0,0.0,22,0.00,,---,0.00,VWS V14.00,2013-02-13 17:21:00,
2013-02-13 12:23:00,37.4,1.0,29.51,West,278,0.0,0.0,21,0.00,,---,0.00,VWS V14.00,2013-02-13 17:23:00,
2013-02-13 12:24:00,38.3,1.8,29.51,West,278,0.0,0.0,21,0.00,,---,0.00,VWS V14.00,2013-02-13 17:24:00,
2013-02-13 12:26:00,37.6,1.2,29.51,WSW,251,4.7,4.7,21,0.00,,---,0.00,VWS V14.00,2013-02-13 17:26:00,
2013-02-13 12:28:00,37.0,1.7,29.51,WSW,250,0.0,3.4,22,0.00,,---,0.00,VWS V14.00,2013-02-13 17:28:00,
2013-02-13 12:29:00,37.4,1.0,29.51,WSW,250,0.0,0.0,21,0.00,,---,0.00,VWS V14.00,2013-02-13 17:29:00,
2013-02-13 12:31:00,37.8,1.4,29.51,South,181,0.0,0.0,21,0.00,,---,0.00,VWS V14.00,2013-02-13 17:31:00,
2013-02-13 12:33:00,37.6,1.2,29.51,SW,227,0.0,0.0,21,0.00,,---,0.00,VWS V14.00,2013-02-13 17:33:00,
2013-02-13 12:34:00,37.4,1.0,29.51,SSW,213,3.4,3.4,21,0.00,,---,0.00,VWS V14.00,2013-02-13 17:34:00,
2013-02-13 12:37:00,37.4,1.0,29.51,SSW,210,3.4,3.4,21,0.00,,---,0.00,VWS V14.00,2013-02-13 17:37:00,
2013-02-13 12:38:00,36.9,1.6,29.51,SW,229,3.4,4.7,22,0.00,,---,0.00,VWS V14.00,2013-02-13 17:38:00,
2013-02-13 12:39:00,37.2,1.9,29.51,WSW,243,0.0,0.0,22,0.00,,---,0.00,VWS V14.00,2013-02-13 17:39:00,
2013-02-13 12:40:00,37.4,1.0,29.51,WSW,243,0.0,0.0,21,0.00,,---,0.00,VWS V14.00,2013-02-13 17:40:00,
2013-02-13 12:42:00,38.1,1.6,29.51,WSW,243,0.0,0.0,21,0.00,,---,0.00,VWS V14.00,2013-02-13 17:42:00,
2013-02-13 12:43:00,38.8,2.3,29.51,SSW,197,0.0,0.0,21,0.00,,---,0.00,VWS V14.00,2013-02-13 17:43:00,
2013-02-13 12:44:00,39.2,2.6,29.51,WSW,238,0.0,0.0,21,0.00,,---,0.00,VWS V14.00,2013-02-13 17:44:00,
2013-02-13 12:45:00,39.2,2.6,29.51,WSW,238,0.0,0.0,21,0.00,,---,0.00,VWS V14.00,2013-02-13 17:45:00,
2013-02-13 12:47:00,39.9,3.2,29.51,WSW,247,0.0,0.0,21,0.00,,---,0.00,VWS V14.00,2013-02-13 17:47:00,
2013-02-13 12:48:00,39.2,2.6,29.51,SW,236,0.0,0.0,21,0.00,,---,0.00,VWS V14.00,2013-02-13 17:48:00,
2013-02-13 12:49:00,38.1,1.6,29.51,West,278,0.0,4.7,21,0.00,,---,0.00,VWS V14.00,2013-02-13 17:49:00,
2013-02-13 12:50:00,38.1,1.6,29.51,West,278,0.0,4.7,21,0.00,,---,0.00,VWS V14.00,2013-02-13 17:50:00,
2013-02-13 12:52:00,38.1,1.6,29.48,West,281,3.4,3.4,21,0.00,,---,0.00,VWS V14.00,2013-02-13 17:52:00,
2013-02-13 12:53:00,39.0,2.4,29.48,West,279,0.0,0.0,21,0.00,,---,0.00,VWS V14.00,2013-02-13 17:53:00,
2013-02-13 12:55:00,39.6,2.9,29.48,WSW,238,0.0,0.0,21,0.00,,---,0.00,VWS V14.00,2013-02-13 17:55:00,
2013-02-13 12:57:00,39.9,3.2,29.48,WSW,240,0.0,0.0,21,0.00,,---,0.00,VWS V14.00,2013-02-13 17:57:00,
2013-02-13 12:58:00,40.5,3.6,29.48,South,191,0.0,0.0,21,0.00,,---,0.00,VWS V14.00,2013-02-13 17:58:00,
2013-02-13 13:00:00,39.9,3.2,29.48,SSW,196,0.0,0.0,21,0.00,,---,0.00,VWS V14.00,2013-02-13 18:00:00,
2013-02-13 13:02:00,39.9,3.2,29.48,SSW,210,5.4,5.4,21,0.00,,---,0.00,VWS V14.00,2013-02-13 18:02:00,
2013-02-13 13:03:00,40.5,3.6,29.48,SSW,210,0.0,0.0,21,0.00,,---,0.00,VWS V14.00,2013-02-13 18:03:00,
2013-02-13 13:05:00,40.6,3.8,29.48,SSW,210,0.0,0.0,21,0.00,,---,0.00,VWS V14.00,2013-02-13 18:05:00,
2013-02-13 13:07:00,40.5,3.6,29.48,WSW,247,0.0,0.0,21,0.00,,---,0.00,VWS V14.00,2013-02-13 18:07:00,
2013-02-13 13:08:00,40.5,3.6,29.48,SW,227,0.0,0.0,21,0.00,,---,0.00,VWS V14.00,2013-02-13 18:08:00,
2013-02-13 13:10:00,40.6,3.8,29.48,SSW,204,0.0,0.0,21,0.00,,---,0.00,VWS V14.00,2013-02-13 18:10:00,
2013-02-13 13:12:00,39.4,2.7,29.48,SSW,205,4.0,4.0,21,0.00,,---,0.00,VWS V14.00,2013-02-13 18:12:00,
2013-02-13 13:13:00,38.8,2.3,29.48,WSW,250,0.0,0.0,21,0.00,,---,0.00,VWS V14.00,2013-02-13 18:13:00,
2013-02-13 13:15:00,39.2,2.6,29.48,SW,220,0.0,0.0,21,0.00,,---,0.00,VWS V14.00,2013-02-13 18:15:00,
2013-02-13 13:17:00,39.9,3.2,29.48,SSW,195,0.0,0.0,21,0.00,,---,0.00,VWS V14.00,2013-02-13 18:17:00,
2013-02-13 13:18:00,40.1,3.3,29.48,SW,221,0.0,0.0,21,0.00,,---,0.00,VWS V14.00,2013-02-13 18:18:00,
2013-02-13 13:20:00,40.5,3.6,29.48,South,181,0.0,0.0,21,0.00,,---,0.00,VWS V14.00,2013-02-13 18:20:00,
2013-02-13 13:21:00,39.9,3.2,29.48,SSW,202,3.4,3.4,21,0.00,,---,0.00,VWS V14.00,2013-02-13 18:21:00,
2013-02-13 13:23:00,39.4,2.7,29.48,South,189,0.0,0.0,21,0.00,,---,0.00,VWS V14.00,2013-02-13 18:23:00,
2013-02-13 13:25:00,38.1,1.6,29.48,SSW,212,4.7,6.0,21,0.00,,---,0.00,VWS V14.00,2013-02-13 18:25:00,
2013-02-13 13:26:00,37.9,1.5,29.48,SSW,210,3.4,4.7,21,0.00,,---,0.00,VWS V14.00,2013-02-13 18:26:00,
2013-02-13 13:28:00,36.9,1.6,29.48,SSW,194,4.0,4.0,22,0.00,,---,0.00,VWS V14.00,2013-02-13 18:28:00,
2013-02-13 13:30:00,36.0,0.8,29.48,SSW,212,0.0,0.0,22,0.00,,---,0.00,VWS V14.00,2013-02-13 18:30:00,
2013-02-13 13:31:00,35.8,0.7,29.48,SSW,212,0.0,0.0,22,0.00,,---,0.00,VWS V14.00,2013-02-13 18:31:00,
2013-02-13 13:33:00,35.4,0.4,29.48,SW,221,0.0,0.0,22,0.00,,---,0.00,VWS V14.00,2013-02-13 18:33:00,
2013-02-13 13:34:00,35.4,0.4,29.48,South,188,0.0,0.0,22,0.00,,---,0.00,VWS V14.00,2013-02-13 18:34:00,
2013-02-13 13:35:00,35.2,0.2,29.48,SSW,203,0.0,0.0,22,0.00,,---,0.00,VWS V14.00,2013-02-13 18:35:00,
2013-02-13 13:36:00,35.2,0.2,29.48,SSW,203,0.0,0.0,22,0.00,,---,0.00,VWS V14.00,2013-02-13 18:36:00,
2013-02-13 13:38:00,35.1,0.1,29.48,WSW,238,0.0,0.0,22,0.00,,---,0.00,VWS V14.00,2013-02-13 18:38:00,
2013-02-13 13:39:00,35.1,0.1,29.48,SSW,202,0.0,0.0,22,0.00,,---,0.00,VWS V14.00,2013-02-13 18:39:00,
2013-02-13 13:41:00,35.4,0.4,29.48,SSW,207,4.0,4.0,22,0.00,,---,0.00,VWS V14.00,2013-02-13 18:41:00,
2013-02-13 13:43:00,35.4,0.4,29.48,SSW,206,0.0,0.0,22,0.00,,---,0.00,VWS V14.00,2013-02-13 18:43:00,
2013-02-13 13:44:00,35.4,0.4,29.48,SW,224,0.0,0.0,22,0.00,,---,0.00,VWS V14.00,2013-02-13 18:44:00,
2013-02-13 13:46:00,35.4,0.4,29.48,SSW,210,4.7,4.7,22,0.00,,---,0.00,VWS V14.00,2013-02-13 18:46:00,
2013-02-13 13:48:00,35.4,0.4,29.48,SW,224,0.0,0.0,22,0.00,,---,0.00,VWS V14.00,2013-02-13 18:48:00,
2013-02-13 13:49:00,35.4,0.4,29.48,SW,224,0.0,0.0,22,0.00,,---,0.00,VWS V14.00,2013-02-13 18:49:00,
2013-02-13 13:51:00,35.8,0.7,29.48,SW,224,0.0,0.0,22,0.00,,---,0.00,VWS V14.00,2013-02-13 18:51:00,
2013-02-13 13:53:00,35.8,0.7,29.48,SSW,198,0.0,4.0,22,0.00,,---,0.00,VWS V14.00,2013-02-13 18:53:00,
2013-02-13 13:54:00,36.1,1.0,29.48,WSW,244,3.4,3.4,22,0.00,,---,0.00,VWS V14.00,2013-02-13 18:54:00,
2013-02-13 13:56:00,36.5,1.3,29.48,SW,218,0.0,0.0,22,0.00,,---,0.00,VWS V14.00,2013-02-13 18:56:00,
2013-02-13 13:58:00,36.9,1.6,29.48,SSW,211,5.4,5.4,22,0.00,,---,0.00,VWS V14.00,2013-02-13 18:58:00,
2013-02-13 13:59:00,36.9,1.6,29.48,SSW,209,5.4,6.0,22,0.04,,---,0.04,VWS V14.00,2013-02-13 18:59:00,
2013-02-13 14:01:00,37.0,1.7,29.48,SW,232,0.0,3.4,22,0.04,,---,0.04,VWS V14.00,2013-02-13 19:01:00,
2013-02-13 14:03:00,37.2,1.9,29.48,SW,225,0.0,4.0,22,0.04,,---,0.04,VWS V14.00,2013-02-13 19:03:00,
2013-02-13 14:04:00,37.2,1.9,29.48,SW,222,0.0,0.0,22,0.04,,---,0.04,VWS V14.00,2013-02-13 19:04:00,
2013-02-13 14:06:00,37.4,1.0,29.48,SW,215,3.4,4.0,21,0.04,,---,0.04,VWS V14.00,2013-02-13 19:06:00,
2013-02-13 14:08:00,37.2,1.9,29.48,SW,227,0.0,0.0,22,0.04,,---,0.04,VWS V14.00,2013-02-13 19:08:00,
2013-02-13 14:09:00,37.2,1.9,29.48,SSW,212,0.0,4.0,22,0.04,,---,0.04,VWS V14.00,2013-02-13 19:09:00,
2013-02-13 14:11:00,36.9,1.6,29.48,SW,230,0.0,0.0,22,0.04,,---,0.04,VWS V14.00,2013-02-13 19:11:00,
2013-02-13 14:14:00,36.9,1.6,29.48,SW,231,0.0,0.0,22,0.04,,---,0.04,VWS V14.00,2013-02-13 19:14:00,
2013-02-13 14:17:00,37.0,1.7,29.48,SW,215,0.0,3.4,22,0.04,,---,0.04,VWS V14.00,2013-02-13 19:17:00,
2013-02-13 14:19:00,37.2,1.9,29.48,South,190,0.0,0.0,22,0.04,,---,0.04,VWS V14.00,2013-02-13 19:19:00,
2013-02-13 14:22:00,37.6,1.2,29.48,SSW,204,5.4,5.4,21,0.04,,---,0.04,VWS V14.00,2013-02-13 19:22:00,
2013-02-13 14:24:00,37.6,1.2,29.48,SSW,193,0.0,0.0,21,0.04,,---,0.04,VWS V14.00,2013-02-13 19:24:00,
2013-02-13 14:27:00,37.8,1.4,29.48,SSW,207,0.0,6.0,21,0.04,,---,0.04,VWS V14.00,2013-02-13 19:27:00,
2013-02-13 14:29:00,37.8,1.4,29.48,SSW,193,4.7,4.7,21,0.04,,---,0.04,VWS V14.00,2013-02-13 19:29:00,
2013-02-13 14:30:00,37.6,1.2,29.48,SSW,209,3.4,5.4,21,0.04,,---,0.04,VWS V14.00,2013-02-13 19:30:00,
2013-02-13 14:32:00,37.4,1.0,29.48,SW,216,0.0,0.0,21,0.04,,---,0.04,VWS V14.00,2013-02-13 19:32:00,
2013-02-13 14:34:00,37.6,1.2,29.48,SSW,196,0.0,4.0,21,0.04,,---,0.04,VWS V14.00,2013-02-13 19:34:00,
2013-02-13 14:37:00,37.0,1.7,29.48,SW,218,6.0,6.0,22,0.04,,---,0.04,VWS V14.00,2013-02-13 19:37:00,
2013-02-13 14:39:00,36.9,1.6,29.48,SSW,204,4.0,4.0,22,0.04,,---,0.04,VWS V14.00,2013-02-13 19:39:00,
2013-02-13 14:40:00,36.7,1.4,29.48,SW,226,4.7,6.0,22,0.04,,---,0.04,VWS V14.00,2013-02-13 19:40:00,
2013-02-13 14:42:00,36.1,1.0,29.48,SSW,203,0.0,0.0,22,0.04,,---,0.04,VWS V14.00,2013-02-13 19:42:00,
2013-02-13 14:44:00,36.1,1.0,29.48,SW,227,0.0,0.0,22,0.04,,---,0.04,VWS V14.00,2013-02-13 19:44:00,
2013-02-13 14:45:00,36.1,1.0,29.48,SSE,162,0.0,0.0,22,0.04,,---,0.04,VWS V14.00,2013-02-13 19:45:00,
2013-02-13 14:47:00,36.1,1.0,29.48,SSW,203,0.0,0.0,22,0.04,,---,0.04,VWS V14.00,2013-02-13 19:47:00,
2013-02-13 14:48:00,36.1,1.0,29.48,SW,215,0.0,0.0,22,0.04,,---,0.04,VWS V14.00,2013-02-13 19:48:00,
2013-02-13 14:49:00,36.1,1.0,29.48,SSW,207,0.0,0.0,22,0.04,,---,0.04,VWS V14.00,2013-02-13 19:49:00,
2013-02-13 14:50:00,36.1,1.0,29.48,SSW,208,0.0,0.0,22,0.04,,---,0.04,VWS V14.00,2013-02-13 19:50:00,
2013-02-13 14:52:00,35.8,0.7,29.48,SW,219,0.0,3.4,22,0.04,,---,0.04,VWS V14.00,2013-02-13 19:52:00,
2013-02-13 14:53:00,35.8,0.7,29.48,SW,219,0.0,3.4,22,0.04,,---,0.04,VWS V14.00,2013-02-13 19:53:00,
2013-02-13 14:54:00,35.8,0.7,29.48,SW,219,0.0,0.0,22,0.04,,---,0.04,VWS V14.00,2013-02-13 19:54:00,
2013-02-13 14:55:00,35.6,0.5,29.48,SW,219,0.0,0.0,22,0.04,,---,0.04,VWS V14.00,2013-02-13 19:55:00,
2013-02-13 14:57:00,35.6,0.5,29.48,SSW,206,0.0,0.0,22,0.04,,---,0.04,VWS V14.00,2013-02-13 19:57:00,
2013-02-13 14:58:00,35.6,0.5,29.48,SSW,206,0.0,0.0,22,0.04,,---,0.04,VWS V14.00,2013-02-13 19:58:00,
2013-02-13 14:59:00,35.4,0.4,29.48,SSW,207,0.0,0.0,22,0.00,,---,0.04,VWS V14.00,2013-02-13 19:59:00,
2013-02-13 15:00:00,35.2,0.2,29.48,SSW,206,0.0,0.0,22,0.00,,---,0.04,VWS V14.00,2013-02-13 20:00:00,
2013-02-13 15:02:00,35.2,0.2,29.48,WSW,238,0.0,0.0,22,0.00,,---,0.04,VWS V14.00,2013-02-13 20:02:00,
2013-02-13 15:03:00,35.2,0.2,29.48,WSW,238,0.0,0.0,22,0.00,,---,0.04,VWS V14.00,2013-02-13 20:03:00,
2013-02-13 15:04:00,35.2,0.2,29.48,WSW,238,0.0,0.0,22,0.00,,---,0.04,VWS V14.00,2013-02-13 20:04:00,
2013-02-13 15:05:00,35.2,0.2,29.48,WSW,238,0.0,0.0,22,0.00,,---,0.04,VWS V14.00,2013-02-13 20:05:00,
2013-02-13 15:08:00,35.2,0.2,29.48,WSW,238,0.0,0.0,22,0.00,,---,0.04,VWS V14.00,2013-02-13 20:08:00,
2013-02-13 15:09:00,35.2,0.2,29.48,WSW,238,0.0,0.0,22,0.00,,---,0.04,VWS V14.00,2013-02-13 20:09:00,
2013-02-13 15:10:00,35.2,0.2,29.48,SSW,201,4.0,4.0,22,0.00,,---,0.04,VWS V14.00,2013-02-13 20:10:00,
2013-02-13 15:13:00,35.1,0.1,29.48,SW,215,0.0,0.0,22,0.00,,---,0.04,VWS V14.00,2013-02-13 20:13:00,
2013-02-13 15:14:00,35.1,0.1,29.48,SW,219,0.0,0.0,22,0.00,,---,0.04,VWS V14.00,2013-02-13 20:14:00,
2013-02-13 15:15:00,35.1,0.1,29.48,SW,225,0.0,0.0,22,0.00,,---,0.04,VWS V14.00,2013-02-13 20:15:00,
2013-02-13 15:18:00,35.6,0.5,29.48,SW,220,0.0,0.0,22,0.00,,---,0.04,VWS V14.00,2013-02-13 20:18:00,
2013-02-13 15:19:00,35.6,0.5,29.48,SW,220,0.0,0.0,22,0.00,,---,0.04,VWS V14.00,2013-02-13 20:19:00,
2013-02-13 15:20:00,35.6,0.5,29.48,SW,220,0.0,0.0,22,0.00,,---,0.04,VWS V14.00,2013-02-13 20:20:00,
2013-02-13 15:23:00,35.4,0.4,29.51,SW,220,0.0,0.0,22,0.00,,---,0.04,VWS V14.00,2013-02-13 20:23:00,
2013-02-13 15:25:00,35.6,0.5,29.51,SW,220,0.0,0.0,22,0.00,,---,0.04,VWS V14.00,2013-02-13 20:25:00,
2013-02-13 15:28:00,37.0,1.7,29.51,SW,220,0.0,0.0,22,0.00,,---,0.04,VWS V14.00,2013-02-13 20:28:00,
2013-02-13 15:30:00,38.3,1.8,29.51,SW,220,0.0,0.0,21,0.00,,---,0.04,VWS V14.00,2013-02-13 20:30:00,
2013-02-13 15:33:00,39.2,2.6,29.51,SSW,200,0.0,0.0,21,0.00,,---,0.04,VWS V14.00,2013-02-13 20:33:00,
2013-02-13 15:35:00,40.5,3.6,29.51,SW,236,0.0,0.0,21,0.00,,---,0.04,VWS V14.00,2013-02-13 20:35:00,
2013-02-13 15:38:00,40.6,3.8,29.51,SW,222,0.0,0.0,21,0.00,,---,0.04,VWS V14.00,2013-02-13 20:38:00,
2013-02-13 15:40:00,41.4,4.4,29.51,SW,232,0.0,0.0,21,0.00,,---,0.04,VWS V14.00,2013-02-13 20:40:00,
2013-02-13 15:41:00,41.0,4.1,29.51,SW,222,0.0,4.0,21,0.00,,---,0.04,VWS V14.00,2013-02-13 20:41:00,
2013-02-13 15:43:00,40.5,3.6,29.51,South,181,0.0,0.0,21,0.00,,---,0.04,VWS V14.00,2013-02-13 20:43:00,
2013-02-13 15:45:00,40.1,3.3,29.51,SW,221,4.0,5.4,21,0.00,,---,0.04,VWS V14.00,2013-02-13 20:45:00,
2013-02-13 15:46:00,40.1,3.3,29.51,SW,225,0.0,0.0,21,0.00,,---,0.04,VWS V14.00,2013-02-13 20:46:00,
2013-02-13 15:48:00,39.9,3.2,29.51,SW,218,0.0,0.0,21,0.00,,---,0.04,VWS V14.00,2013-02-13 20:48:00,
2013-02-13 15:50:00,39.7,3.0,29.51,South,190,0.0,3.4,21,0.00,,---,0.04,VWS V14.00,2013-02-13 20:50:00,
2013-02-13 15:51:00,39.4,2.7,29.48,SSW,209,0.0,0.0,21,0.00,,---,0.04,VWS V14.00,2013-02-13 20:51:00,
2013-02-13 15:53:00,39.0,2.4,29.48,SSW,208,3.4,3.4,21,0.00,,---,0.04,VWS V14.00,2013-02-13 20:53:00,
2013-02-13 15:55:00,38.7,2.1,29.48,SSW,203,0.0,4.0,21,0.00,,---,0.04,VWS V14.00,2013-02-13 20:55:00,
2013-02-13 15:56:00,38.7,2.1,29.48,SW,226,0.0,0.0,21,0.00,,---,0.04,VWS V14.00,2013-02-13 20:56:00,
2013-02-13 15:58:00,38.7,2.1,29.48,SSW,200,4.0,4.0,21,0.00,,---,0.04,VWS V14.00,2013-02-13 20:58:00,
2013-02-13 16:00:00,38.8,2.3,29.48,SW,215,5.4,5.4,21,0.00,,---,0.04,VWS V14.00,2013-02-13 21:00:00,
2013-02-13 16:01:00,38.8,2.3,29.48,WSW,247,0.0,4.7,21,0.00,,---,0.04,VWS V14.00,2013-02-13 21:01:00,
2013-02-13 16:03:00,39.0,2.4,29.48,SSE,161,6.0,6.0,21,0.00,,---,0.04,VWS V14.00,2013-02-13 21:03:00,
2013-02-13 16:05:00,38.8,2.3,29.48,SSE,168,4.7,4.7,21,0.00,,---,0.04,VWS V14.00,2013-02-13 21:05:00,
2013-02-13 16:06:00,38.8,2.3,29.51,SW,217,0.0,4.7,21,0.00,,---,0.04,VWS V14.00,2013-02-13 21:06:00,
2013-02-13 16:08:00,38.8,2.3,29.51,SW,214,0.0,0.0,21,0.00,,---,0.04,VWS V14.00,2013-02-13 21:08:00,
2013-02-13 16:10:00,38.5,2.0,29.51,SW,221,0.0,0.0,21,0.00,,---,0.04,VWS V14.00,2013-02-13 21:10:00,
2013-02-13 16:11:00,38.1,1.6,29.51,SW,220,3.4,3.4,21,0.00,,---,0.04,VWS V14.00,2013-02-13 21:11:00,
2013-02-13 16:13:00,37.9,1.5,29.51,SSW,210,4.7,4.7,21,0.00,,---,0.04,VWS V14.00,2013-02-13 21:13:00,
2013-02-13 16:15:00,37.8,1.4,29.51,SSW,210,4.0,4.0,21,0.00,,---,0.04,VWS V14.00,2013-02-13 21:15:00,
2013-02-13 16:16:00,37.6,1.2,29.51,SSW,200,4.7,5.4,21,0.00,,---,0.04,VWS V14.00,2013-02-13 21:16:00,
2013-02-13 16:18:00,37.4,1.0,29.51,South,190,4.7,4.7,21,0.00,,---,0.04,VWS V14.00,2013-02-13 21:18:00,
2013-02-13 16:20:00,37.0,1.7,29.51,South,173,3.4,4.7,22,0.00,,---,0.04,VWS V14.00,2013-02-13 21:20:00,
2013-02-13 16:22:00,36.9,1.6,29.51,SSW,201,3.4,4.7,22,0.00,,---,0.04,VWS V14.00,2013-02-13 21:22:00,
2013-02-13 16:23:00,37.0,1.7,29.51,South,183,3.4,3.4,22,0.00,,---,0.04,VWS V14.00,2013-02-13 21:23:00,
2013-02-13 16:25:00,37.4,1.0,29.51,South,183,0.0,0.0,21,0.00,,---,0.04,VWS V14.00,2013-02-13 21:25:00,
2013-02-13 16:27:00,37.6,1.2,29.51,SW,232,3.4,3.4,21,0.00,,---,0.04,VWS V14.00,2013-02-13 21:27:00,
2013-02-13 16:28:00,37.6,1.2,29.51,SSW,200,0.0,0.0,21,0.00,,---,0.04,VWS V14.00,2013-02-13 21:28:00,
2013-02-13 16:30:00,37.4,1.0,29.51,SSW,206,4.0,4.7,21,0.00,,---,0.04,VWS V14.00,2013-02-13 21:30:00,
2013-02-13 16:32:00,37.0,1.7,29.51,South,172,0.0,3.4,22,0.00,,---,0.04,VWS V14.00,2013-02-13 21:32:00,
2013-02-13 16:33:00,37.0,1.7,29.51,South,187,0.0,4.0,22,0.00,,---,0.04,VWS V14.00,2013-02-13 21:33:00,
2013-02-13 16:35:00,36.7,1.4,29.51,SSE,161,5.4,5.4,22,0.00,,---,0.04,VWS V14.00,2013-02-13 21:35:00,
2013-02-13 16:37:00,36.7,1.4,29.51,SSW,211,4.0,4.0,22,0.00,,---,0.04,VWS V14.00,2013-02-13 21:37:00,
2013-02-13 16:38:00,36.5,1.3,29.51,South,174,4.7,6.0,22,0.00,,---,0.04,VWS V14.00,2013-02-13 21:38:00,
2013-02-13 16:39:00,36.5,1.3,29.51,South,175,4.7,6.0,22,0.00,,---,0.04,VWS V14.00,2013-02-13 21:39:00,
2013-02-13 16:41:00,36.5,1.3,29.51,SW,218,3.4,3.4,22,0.00,,---,0.04,VWS V14.00,2013-02-13 21:41:00,
2013-02-13 16:42:00,36.5,1.3,29.51,South,174,5.4,5.4,22,0.00,,---,0.04,VWS V14.00,2013-02-13 21:42:00,
2013-02-13 16:43:00,36.5,1.3,29.51,South,177,4.7,4.7,22,0.00,,---,0.04,VWS V14.00,2013-02-13 21:43:00,
2013-02-13 16:44:00,36.5,1.3,29.51,SSW,193,4.0,4.7,22,0.00,,---,0.04,VWS V14.00,2013-02-13 21:44:00,
2013-02-13 16:46:00,36.5,1.3,29.51,South,181,3.4,3.4,22,0.00,,---,0.04,VWS V14.00,2013-02-13 21:46:00,
2013-02-13 16:47:00,36.5,1.3,29.51,SSW,208,0.0,4.7,22,0.00,,---,0.04,VWS V14.00,2013-02-13 21:47:00,
2013-02-13 16:48:00,36.5,1.3,29.51,SSW,204,0.0,4.0,22,0.00,,---,0.04,VWS V14.00,2013-02-13 21:48:00,
2013-02-13 16:49:00,36.5,1.3,29.51,SSW,204,0.0,0.0,22,0.00,,---,0.04,VWS V14.00,2013-02-13 21:49:00,
2013-02-13 16:51:00,36.7,1.4,29.51,SW,226,0.0,0.0,22,0.00,,---,0.04,VWS V14.00,2013-02-13 21:51:00,
2013-02-13 16:52:00,36.7,1.4,29.51,SW,215,0.0,3.4,22,0.00,,---,0.04,VWS V14.00,2013-02-13 21:52:00,
2013-02-13 16:54:00,36.7,1.4,29.51,SSW,212,4.7,4.7,22,0.00,,---,0.04,VWS V14.00,2013-02-13 21:54:00,
2013-02-13 16:56:00,36.7,1.4,29.51,South,179,4.0,4.0,22,0.00,,---,0.04,VWS V14.00,2013-02-13 21:56:00,
2013-02-13 16:57:00,36.7,1.4,29.51,SSW,210,4.0,4.0,22,0.00,,---,0.04,VWS V14.00,2013-02-13 21:57:00,
2013-02-13 16:59:00,36.7,1.4,29.51,SW,235,0.0,4.7,22,0.00,,---,0.04,VWS V14.00,2013-02-13 21:59:00,
2013-02-13 17:01:00,36.5,1.3,29.51,SSW,192,5.4,5.4,22,0.00,,---,0.04,VWS V14.00,2013-02-13 22:01:00,
2013-02-13 17:02:00,36.3,1.1,29.51,South,186,0.0,4.0,22,0.00,,---,0.04,VWS V14.00,2013-02-13 22:02:00,
2013-02-13 17:04:00,36.3,1.1,29.51,SSW,206,0.0,4.0,22,0.00,,---,0.04,VWS V14.00,2013-02-13 22:04:00,
2013-02-13 17:06:00,36.3,1.1,29.51,SSW,206,0.0,0.0,22,0.00,,---,0.04,VWS V14.00,2013-02-13 22:06:00,
2013-02-13 17:07:00,36.1,1.0,29.51,SSW,206,0.0,0.0,22,0.00,,---,0.04,VWS V14.00,2013-02-13 22:07:00,
2013-02-13 17:09:00,36.1,1.0,29.51,SSW,206,3.4,3.4,22,0.00,,---,0.04,VWS V14.00,2013-02-13 22:09:00,
2013-02-13 17:10:00,36.1,1.0,29.51,SSW,206,0.0,3.4,22,0.00,,---,0.04,VWS V14.00,2013-02-13 22:10:00,
2013-02-13 17:11:00,36.0,0.8,29.51,SSW,206,0.0,0.0,22,0.00,,---,0.04,VWS V14.00,2013-02-13 22:11:00,
2013-02-13 17:12:00,35.8,0.7,29.51,SSW,206,0.0,0.0,22,0.00,,---,0.04,VWS V14.00,2013-02-13 22:12:00,
2013-02-13 17:14:00,35.8,0.7,29.51,SSE,162,4.7,5.4,22,0.00,,---,0.04,VWS V14.00,2013-02-13 22:14:00,
2013-02-13 17:16:00,35.8,0.7,29.51,SSE,162,3.4,4.0,22,0.00,,---,0.04,VWS V14.00,2013-02-13 22:16:00,
2013-02-13 17:17:00,35.8,0.7,29.51,SSW,203,3.4,4.7,22,0.00,,---,0.04,VWS V14.00,2013-02-13 22:17:00,
2013-02-13 17:19:00,35.8,0.7,29.51,SSW,203,4.0,4.0,22,0.00,,---,0.04,VWS V14.00,2013-02-13 22:19:00,
2013-02-13 17:20:00,35.8,0.7,29.51,SSW,203,0.0,4.0,22,0.00,,---,0.04,VWS V14.00,2013-02-13 22:20:00,
2013-02-13 17:21:00,35.8,0.7,29.51,SSW,204,4.0,4.7,22,0.00,,---,0.04,VWS V14.00,2013-02-13 22:21:00,
2013-02-13 17:22:00,36.0,0.8,29.51,South,186,4.0,5.4,22,0.00,,---,0.04,VWS V14.00,2013-02-13 22:22:00,
2013-02-13 17:24:00,36.0,0.8,29.51,SSW,206,4.0,4.0,22,0.00,,---,0.04,VWS V14.00,2013-02-13 22:24:00,
2013-02-13 17:25:00,36.0,0.8,29.51,SSW,199,6.0,6.0,22,0.00,,---,0.04,VWS V14.00,2013-02-13 22:25:00,
2013-02-13 17:26:00,36.0,0.8,29.51,SW,224,4.0,4.0,22,0.00,,---,0.04,VWS V14.00,2013-02-13 22:26:00,
2013-02-13 17:28:00,36.0,0.8,29.51,SSW,211,4.7,5.4,22,0.00,,---,0.04,VWS V14.00,2013-02-13 22:28:00,
2013-02-13 17:29:00,35.8,0.7,29.51,SSW,197,0.0,4.0,22,0.00,,---,0.04,VWS V14.00,2013-02-13 22:29:00,
2013-02-13 17:30:00,35.8,0.7,29.51,SSW,197,3.4,3.4,22,0.00,,---,0.04,VWS V14.00,2013-02-13 22:30:00,
2013-02-13 17:31:00,35.8,0.7,29.51,SSW,197,0.0,3.4,22,0.00,,---,0.04,VWS V14.00,2013-02-13 22:31:00,
2013-02-13 17:33:00,35.8,0.7,29.51,South,176,0.0,3.4,22,0.00,,---,0.04,VWS V14.00,2013-02-13 22:33:00,
2013-02-13 17:34:00,35.8,0.7,29.51,South,176,4.0,4.0,22,0.00,,---,0.04,VWS V14.00,2013-02-13 22:34:00,
2013-02-13 17:35:00,35.8,0.7,29.51,South,176,3.4,4.0,22,0.00,,---,0.04,VWS V14.00,2013-02-13 22:35:00,
2013-02-13 17:36:00,35.6,0.5,29.51,South,176,0.0,4.0,22,0.00,,---,0.04,VWS V14.00,2013-02-13 22:36:00,
2013-02-13 17:38:00,35.4,0.4,29.51,SSW,204,5.4,5.4,22,0.00,,---,0.04,VWS V14.00,2013-02-13 22:38:00,
2013-02-13 17:40:00,35.4,0.4,29.51,South,187,5.4,5.4,22,0.00,,---,0.04,VWS V14.00,2013-02-13 22:40:00,
2013-02-13 17:41:00,35.1,0.1,29.51,SSE,166,3.4,4.0,22,0.00,,---,0.04,VWS V14.00,2013-02-13 22:41:00,
2013-02-13 17:43:00,34.9,-0.1,29.51,SSE,166,0.0,0.0,22,0.00,,---,0.04,VWS V14.00,2013-02-13 22:43:00,
2013-02-13 17:45:00,34.7,-0.2,29.51,SSE,166,0.0,0.0,22,0.00,,---,0.04,VWS V14.00,2013-02-13 22:45:00,
2013-02-13 17:47:00,34.3,-0.6,29.51,SSE,166,0.0,3.4,22,0.00,,---,0.04,VWS V14.00,2013-02-13 22:47:00,
2013-02-13 17:48:00,34.2,-0.7,29.51,SSE,166,0.0,0.0,22,0.00,,---,0.04,VWS V14.00,2013-02-13 22:48:00,
2013-02-13 17:50:00,34.0,-0.9,29.51,SSE,166,3.4,3.4,22,0.00,,---,0.04,VWS V14.00,2013-02-13 22:50:00,
2013-02-13 17:52:00,33.8,-1.0,29.51,SSE,166,0.0,4.0,22,0.00,,---,0.04,VWS V14.00,2013-02-13 22:52:00,
2013-02-13 17:53:00,33.6,-0.2,29.51,SSE,166,0.0,0.0,23,0.00,,---,0.04,VWS V14.00,2013-02-13 22:53:00,
2013-02-13 17:55:00,33.4,-0.4,29.51,SSE,166,0.0,0.0,23,0.00,,---,0.04,VWS V14.00,2013-02-13 22:55:00,
2013-02-13 17:57:00,33.3,-0.5,29.51,SSE,166,0.0,0.0,23,0.00,,---,0.04,VWS V14.00,2013-02-13 22:57:00,
2013-02-13 17:58:00,33.1,-0.7,29.51,SSE,166,0.0,0.0,23,0.00,,---,0.04,VWS V14.00,2013-02-13 22:58:00,
2013-02-13 18:00:00,33.1,-0.7,29.51,SSE,166,0.0,0.0,23,0.00,,---,0.04,VWS V14.00,2013-02-13 23:00:00,
2013-02-13 18:02:00,32.7,-1.0,29.51,SSE,166,0.0,0.0,23,0.00,,---,0.04,VWS V14.00,2013-02-13 23:02:00,
2013-02-13 18:03:00,32.7,-1.0,29.51,SSE,166,0.0,0.0,23,0.00,,---,0.04,VWS V14.00,2013-02-13 23:03:00,
2013-02-13 18:05:00,32.5,-1.1,29.51,SSE,166,0.0,0.0,23,0.00,,---,0.04,VWS V14.00,2013-02-13 23:05:00,
2013-02-13 18:07:00,32.5,-1.1,29.51,SSE,166,3.4,3.4,23,0.00,,---,0.04,VWS V14.00,2013-02-13 23:07:00,
2013-02-13 18:08:00,32.4,-1.3,29.51,SSE,166,4.0,4.0,23,0.00,,---,0.04,VWS V14.00,2013-02-13 23:08:00,
2013-02-13 18:10:00,32.4,-1.3,29.51,SSE,167,4.7,4.7,23,0.00,,---,0.04,VWS V14.00,2013-02-13 23:10:00,
2013-02-13 18:11:00,32.4,-1.3,29.51,SSW,194,4.0,4.7,23,0.00,,---,0.04,VWS V14.00,2013-02-13 23:11:00,
2013-02-13 18:12:00,32.2,-1.4,29.51,SSW,194,4.0,4.0,23,0.00,,---,0.04,VWS V14.00,2013-02-13 23:12:00,
2013-02-13 18:13:00,32.2,-1.4,29.51,SSW,199,3.4,4.7,23,0.00,,---,0.04,VWS V14.00,2013-02-13 23:13:00,
2013-02-13 18:15:00,32.2,-1.4,29.51,SSW,199,4.0,4.0,23,0.00,,---,0.04,VWS V14.00,2013-02-13 23:15:00,
2013-02-13 18:16:00,32.2,-1.4,29.51,SSW,199,4.0,4.0,23,0.00,,---,0.04,VWS V14.00,2013-02-13 23:16:00,
2013-02-13 18:17:00,32.2,-1.4,29.51,SSW,199,3.4,3.4,23,0.00,,---,0.04,VWS V14.00,2013-02-13 23:17:00,
2013-02-13 18:18:00,32.2,-1.4,29.51,SSW,199,3.4,3.4,23,0.00,,---,0.04,VWS V14.00,2013-02-13 23:18:00,
2013-02-13 18:20:00,32.0,-1.6,29.51,SSW,199,0.0,0.0,23,0.00,,---,0.04,VWS V14.00,2013-02-13 23:20:00,
2013-02-13 18:21:00,32.0,-1.6,29.51,SSW,199,0.0,0.0,23,0.00,,---,0.04,VWS V14.00,2013-02-13 23:21:00,
2013-02-13 18:22:00,31.8,-1.8,29.51,SSW,199,0.0,0.0,23,0.00,,---,0.04,VWS V14.00,2013-02-13 23:22:00,
2013-02-13 18:24:00,31.6,-1.9,29.51,SSW,199,0.0,0.0,23,0.00,,---,0.04,VWS V14.00,2013-02-13 23:24:00,
2013-02-13 18:25:00,31.5,-2.0,29.51,SSW,199,0.0,0.0,23,0.00,,---,0.04,VWS V14.00,2013-02-13 23:25:00,
2013-02-13 18:26:00,31.3,-2.2,29.51,SSW,199,0.0,0.0,23,0.00,,---,0.04,VWS V14.00,2013-02-13 23:26:00,
2013-02-13 18:27:00,31.1,-2.4,29.51,SSW,199,0.0,0.0,23,0.00,,---,0.04,VWS V14.00,2013-02-13 23:27:00,
2013-02-13 18:29:00,31.1,-2.4,29.51,SSW,199,0.0,0.0,23,0.00,,---,0.04,VWS V14.00,2013-02-13 23:29:00,
2013-02-13 18:30:00,31.1,-2.4,29.51,SSW,199,0.0,0.0,23,0.00,,---,0.04,VWS V14.00,2013-02-13 23:30:00,
2013-02-13 18:31:00,31.1,-2.4,29.51,SSW,199,0.0,0.0,23,0.00,,---,0.04,VWS V14.00,2013-02-13 23:31:00,
2013-02-13 18:32:00,31.1,-2.4,29.51,SSW,199,0.0,0.0,23,0.00,,---,0.04,VWS V14.00,2013-02-13 23:32:00,
2013-02-13 18:34:00,30.9,-2.5,29.51,SSW,199,0.0,0.0,23,0.00,,---,0.04,VWS V14.00,2013-02-13 23:34:00,
2013-02-13 18:35:00,30.7,-2.7,29.51,SSW,199,0.0,0.0,23,0.00,,---,0.04,VWS V14.00,2013-02-13 23:35:00,
2013-02-13 18:36:00,30.7,-0.9,29.51,SSW,199,0.0,0.0,25,0.00,,---,0.04,VWS V14.00,2013-02-13 23:36:00,
2013-02-13 18:37:00,30.6,-1.1,29.51,SSW,199,0.0,0.0,25,0.00,,---,0.04,VWS V14.00,2013-02-13 23:37:00,
2013-02-13 18:39:00,30.6,-1.1,29.51,SSW,199,0.0,0.0,25,0.00,,---,0.04,VWS V14.00,2013-02-13 23:39:00,
2013-02-13 18:40:00,30.4,-1.2,29.51,SSW,199,0.0,0.0,25,0.00,,---,0.04,VWS V14.00,2013-02-13 23:40:00,
2013-02-13 18:41:00,30.4,-1.2,29.51,SSW,199,0.0,0.0,25,0.00,,---,0.04,VWS V14.00,2013-02-13 23:41:00,
2013-02-13 18:43:00,30.4,-1.2,29.51,SSW,199,0.0,0.0,25,0.00,,---,0.04,VWS V14.00,2013-02-13 23:43:00,
2013-02-13 18:44:00,30.2,-1.4,29.51,SSW,200,0.0,0.0,25,0.00,,---,0.04,VWS V14.00,2013-02-13 23:44:00,
2013-02-13 18:45:00,30.2,-1.4,29.51,SSW,200,0.0,0.0,25,0.00,,---,0.04,VWS V14.00,2013-02-13 23:45:00,
2013-02-13 18:46:00,30.2,-1.4,29.51,SSW,199,0.0,0.0,25,0.00,,---,0.04,VWS V14.00,2013-02-13 23:46:00,
2013-02-13 18:48:00,30.0,-1.5,29.51,SSW,199,0.0,0.0,25,0.00,,---,0.04,VWS V14.00,2013-02-13 23:48:00,
2013-02-13 18:50:00,29.8,-1.7,29.51,SSW,199,0.0,0.0,25,0.00,,---,0.04,VWS V14.00,2013-02-13 23:50:00,
2013-02-13 18:51:00,29.7,-1.8,29.51,SSW,199,0.0,0.0,25,0.00,,---,0.04,VWS V14.00,2013-02-13 23:51:00,
2013-02-13 18:53:00,29.5,-2.0,29.51,SSW,199,0.0,0.0,25,0.00,,---,0.04,VWS V14.00,2013-02-13 23:53:00,
2013-02-13 18:55:00,29.3,-2.2,29.51,SSW,199,0.0,0.0,25,0.00,,---,0.04,VWS V14.00,2013-02-13 23:55:00,
2013-02-13 18:56:00,29.3,-2.2,29.51,SSW,199,0.0,0.0,25,0.00,,---,0.04,VWS V14.00,2013-02-13 23:56:00,
2013-02-13 18:58:00,29.1,-2.3,29.51,SSW,199,0.0,0.0,25,0.00,,---,0.04,VWS V14.00,2013-02-13 23:58:00,
2013-02-13 19:00:00,29.1,-2.3,29.51,SSW,199,0.0,0.0,25,0.00,,---,0.04,VWS V14.00,2013-02-14 00:00:00,
2013-02-13 19:01:00,29.1,-2.3,29.51,SSW,199,0.0,0.0,25,0.00,,---,0.04,VWS V14.00,2013-02-14 00:01:00,
2013-02-13 19:03:00,29.1,0.1,29.51,SSW,199,0.0,0.0,28,0.00,,---,0.04,VWS V14.00,2013-02-14 00:03:00,
2013-02-13 19:05:00,28.9,-0.1,29.51,SSW,199,0.0,0.0,28,0.00,,---,0.04,VWS V14.00,2013-02-14 00:05:00,
2013-02-13 19:06:00,28.9,1.4,29.51,SSW,199,0.0,0.0,30,0.00,,---,0.04,VWS V14.00,2013-02-14 00:06:00,
2013-02-13 19:08:00,28.9,1.4,29.51,SSW,199,0.0,0.0,30,0.00,,---,0.04,VWS V14.00,2013-02-14 00:08:00,
2013-02-13 19:10:00,28.8,1.2,29.51,SSW,199,0.0,0.0,30,0.00,,---,0.04,VWS V14.00,2013-02-14 00:10:00,
2013-02-13 19:11:00,28.9,1.4,29.51,SSW,199,0.0,0.0,30,0.00,,---,0.04,VWS V14.00,2013-02-14 00:11:00,
2013-02-13 19:13:00,28.8,1.2,29.51,SSW,199,0.0,0.0,30,0.00,,---,0.04,VWS V14.00,2013-02-14 00:13:00,
2013-02-13 19:15:00,28.8,1.2,29.51,SSW,199,0.0,0.0,30,0.00,,---,0.04,VWS V14.00,2013-02-14 00:15:00,
2013-02-13 19:17:00,28.8,1.2,29.51,SSW,199,0.0,0.0,30,0.00,,---,0.04,VWS V14.00,2013-02-14 00:17:00,
2013-02-13 19:18:00,28.9,2.1,29.51,SSW,199,0.0,0.0,31,0.00,,---,0.04,VWS V14.00,2013-02-14 00:18:00,
2013-02-13 19:20:00,29.1,2.3,29.51,SSW,199,0.0,0.0,31,0.00,,---,0.04,VWS V14.00,2013-02-14 00:20:00,
2013-02-13 19:21:00,29.1,2.3,29.51,SSW,199,0.0,0.0,31,0.00,,---,0.04,VWS V14.00,2013-02-14 00:21:00,
2013-02-13 19:23:00,29.3,2.4,29.51,SSW,199,0.0,0.0,31,0.00,,---,0.04,VWS V14.00,2013-02-14 00:23:00,
2013-02-13 19:25:00,29.3,3.1,29.51,SSW,199,0.0,0.0,32,0.00,,---,0.04,VWS V14.00,2013-02-14 00:25:00,
2013-02-13 19:26:00,29.3,3.1,29.51,SSW,199,0.0,0.0,32,0.00,,---,0.04,VWS V14.00,2013-02-14 00:26:00,
2013-02-13 19:28:00,29.5,3.3,29.51,SSW,199,0.0,0.0,32,0.00,,---,0.04,VWS V14.00,2013-02-14 00:28:00,
2013-02-13 19:31:00,29.5,3.3,29.51,SSW,199,0.0,0.0,32,0.00,,---,0.04,VWS V14.00,2013-02-14 00:31:00,
2013-02-13 19:32:00,29.7,3.4,29.51,SSW,199,0.0,0.0,32,0.00,,---,0.04,VWS V14.00,2013-02-14 00:32:00,
2013-02-13 19:33:00,29.7,2.7,29.51,SSW,199,0.0,0.0,31,0.00,,---,0.04,VWS V14.00,2013-02-14 00:33:00,
2013-02-13 19:36:00,29.7,2.7,29.51,SSW,199,0.0,0.0,31,0.00,,---,0.04,VWS V14.00,2013-02-14 00:36:00,
2013-02-13 19:37:00,29.7,2.7,29.51,SSW,199,0.0,0.0,31,0.00,,---,0.04,VWS V14.00,2013-02-14 00:37:00,
2013-02-13 19:38:00,29.7,2.7,29.51,SSW,199,0.0,0.0,31,0.00,,---,0.04,VWS V14.00,2013-02-14 00:38:00,
2013-02-13 19:41:00,29.7,2.7,29.51,SSW,199,0.0,0.0,31,0.00,,---,0.04,VWS V14.00,2013-02-14 00:41:00,
2013-02-13 19:42:00,29.7,2.7,29.51,SSW,199,0.0,0.0,31,0.00,,---,0.04,VWS V14.00,2013-02-14 00:42:00,
2013-02-13 19:44:00,29.7,2.7,29.51,SSW,199,0.0,0.0,31,0.00,,---,0.04,VWS V14.00,2013-02-14 00:44:00,
2013-02-13 19:46:00,29.7,2.7,29.51,SSW,199,0.0,0.0,31,0.00,,---,0.04,VWS V14.00,2013-02-14 00:46:00,
2013-02-13 19:47:00,29.8,2.9,29.51,SSW,199,0.0,0.0,31,0.00,,---,0.04,VWS V14.00,2013-02-14 00:47:00,
2013-02-13 19:49:00,29.8,2.9,29.51,SSW,199,0.0,0.0,31,0.00,,---,0.04,VWS V14.00,2013-02-14 00:49:00,
2013-02-13 19:51:00,30.0,3.1,29.51,SSW,199,0.0,0.0,31,0.00,,---,0.04,VWS V14.00,2013-02-14 00:51:00,
2013-02-13 19:52:00,30.0,3.1,29.51,SSW,199,0.0,0.0,31,0.00,,---,0.04,VWS V14.00,2013-02-14 00:52:00,
2013-02-13 19:54:00,29.8,2.9,29.51,SSW,199,0.0,0.0,31,0.00,,---,0.04,VWS V14.00,2013-02-14 00:54:00,
2013-02-13 19:56:00,29.7,2.7,29.51,SSW,199,0.0,0.0,31,0.00,,---,0.04,VWS V14.00,2013-02-14 00:56:00,
2013-02-13 19:58:00,29.5,2.6,29.51,SSW,199,0.0,0.0,31,0.00,,---,0.04,VWS V14.00,2013-02-14 00:58:00,
2013-02-13 19:59:00,29.3,2.4,29.51,SSW,199,0.0,0.0,31,0.00,,---,0.04,VWS V14.00,2013-02-14 00:59:00,
2013-02-13 20:01:00,29.1,2.3,29.51,North,8,3.4,3.4,31,0.00,,---,0.04,VWS V14.00,2013-02-14 01:01:00,
2013-02-13 20:03:00,28.8,2.6,29.51,NNE,12,0.0,3.4,32,0.00,,---,0.04,VWS V14.00,2013-02-14 01:03:00,
2013-02-13 20:04:00,28.6,2.5,29.51,NNE,17,3.4,4.0,32,0.00,,---,0.04,VWS V14.00,2013-02-14 01:04:00,
2013-02-13 20:06:00,28.4,3.0,29.54,NNE,29,4.0,4.0,33,0.00,,---,0.04,VWS V14.00,2013-02-14 01:06:00,
2013-02-13 20:08:00,28.4,3.0,29.54,NNE,30,4.0,4.0,33,0.00,,---,0.04,VWS V14.00,2013-02-14 01:08:00,
2013-02-13 20:09:00,28.4,3.6,29.54,NNE,30,3.4,3.4,34,0.00,,---,0.04,VWS V14.00,2013-02-14 01:09:00,
2013-02-13 20:11:00,28.2,4.1,29.54,NNE,30,0.0,0.0,35,0.00,,---,0.04,VWS V14.00,2013-02-14 01:11:00,
2013-02-13 20:12:00,28.0,3.9,29.54,NNE,30,0.0,0.0,35,0.00,,---,0.04,VWS V14.00,2013-02-14 01:12:00,
2013-02-13 20:13:00,27.9,3.8,29.54,NNE,30,0.0,3.4,35,0.00,,---,0.04,VWS V14.00,2013-02-14 01:13:00,
2013-02-13 20:14:00,27.9,3.8,29.54,NNE,30,0.0,3.4,35,0.00,,---,0.04,VWS V14.00,2013-02-14 01:14:00,
2013-02-13 20:16:00,27.9,3.8,29.54,NNE,30,0.0,0.0,35,0.00,,---,0.04,VWS V14.00,2013-02-14 01:16:00,
2013-02-13 20:17:00,27.7,3.6,29.54,NNE,30,3.4,3.4,35,0.00,,---,0.04,VWS V14.00,2013-02-14 01:17:00,
2013-02-13 20:18:00,27.7,4.2,29.54,NNE,30,3.4,3.4,36,0.00,,---,0.04,VWS V14.00,2013-02-14 01:18:00,
2013-02-13 20:20:00,27.5,4.1,29.54,NNE,30,4.0,4.0,36,0.00,,---,0.04,VWS V14.00,2013-02-14 01:20:00,
2013-02-13 20:21:00,27.5,4.7,29.54,NNE,30,3.4,3.4,37,0.00,,---,0.04,VWS V14.00,2013-02-14 01:21:00,
2013-02-13 20:22:00,27.3,5.1,29.54,NNE,30,3.4,3.4,38,0.00,,---,0.04,VWS V14.00,2013-02-14 01:22:00,
2013-02-13 20:23:00,27.1,4.9,29.54,NNE,30,3.4,3.4,38,0.00,,---,0.04,VWS V14.00,2013-02-14 01:23:00,
2013-02-13 20:25:00,27.1,4.9,29.54,NNE,31,0.0,0.0,38,0.00,,---,0.04,VWS V14.00,2013-02-14 01:25:00,
2013-02-13 20:26:00,27.0,4.8,29.54,NNE,30,0.0,0.0,38,0.00,,---,0.04,VWS V14.00,2013-02-14 01:26:00,
2013-02-13 20:27:00,27.0,4.8,29.54,NNE,30,0.0,0.0,38,0.00,,---,0.04,VWS V14.00,2013-02-14 01:27:00,
2013-02-13 20:28:00,27.0,4.8,29.54,NNE,30,0.0,0.0,38,0.00,,---,0.04,VWS V14.00,2013-02-14 01:28:00,
2013-02-13 20:30:00,26.8,4.6,29.54,NNE,30,0.0,0.0,38,0.00,,---,0.04,VWS V14.00,2013-02-14 01:30:00,
2013-02-13 20:31:00,26.6,5.0,29.54,NNE,30,0.0,0.0,39,0.00,,---,0.04,VWS V14.00,2013-02-14 01:31:00,
2013-02-13 20:32:00,26.6,5.0,29.54,NNE,31,0.0,0.0,39,0.00,,---,0.04,VWS V14.00,2013-02-14 01:32:00,
2013-02-13 20:33:00,26.6,5.0,29.54,NNE,31,0.0,0.0,39,0.00,,---,0.04,VWS V14.00,2013-02-14 01:33:00,
2013-02-13 20:35:00,26.4,4.8,29.54,NNE,30,0.0,0.0,39,0.00,,---,0.04,VWS V14.00,2013-02-14 01:35:00,
2013-02-13 20:37:00,26.4,5.4,29.54,NNE,30,0.0,0.0,40,0.00,,---,0.04,VWS V14.00,2013-02-14 01:37:00,
2013-02-13 20:39:00,26.2,5.2,29.54,NNE,30,0.0,0.0,40,0.00,,---,0.04,VWS V14.00,2013-02-14 01:39:00,
2013-02-13 20:40:00,26.2,5.2,29.54,NNE,31,0.0,0.0,40,0.00,,---,0.04,VWS V14.00,2013-02-14 01:40:00,
2013-02-13 20:42:00,26.2,5.8,29.54,NNE,30,3.4,3.4,41,0.00,,---,0.04,VWS V14.00,2013-02-14 01:42:00,
2013-02-13 20:44:00,26.2,5.8,29.54,NNE,30,3.4,4.0,41,0.00,,---,0.04,VWS V14.00,2013-02-14 01:44:00,
2013-02-13 20:45:00,26.2,5.8,29.54,NNE,30,0.0,0.0,41,0.00,,---,0.04,VWS V14.00,2013-02-14 01:45:00,
2013-02-13 20:47:00,26.1,6.1,29.54,North,5,0.0,0.0,42,0.00,,---,0.04,VWS V14.00,2013-02-14 01:47:00,
2013-02-13 20:49:00,26.1,6.1,29.54,North,5,0.0,3.4,42,0.00,,---,0.04,VWS V14.00,2013-02-14 01:49:00,
2013-02-13 20:50:00,26.1,6.1,29.54,NNE,18,4.7,4.7,42,0.00,,---,0.04,VWS V14.00,2013-02-14 01:50:00,
2013-02-13 20:52:00,26.1,6.1,29.54,NNE,22,0.0,4.7,42,0.00,,---,0.04,VWS V14.00,2013-02-14 01:52:00,
2013-02-13 20:54:00,26.1,6.6,29.54,NNE,21,0.0,3.4,43,0.00,,---,0.04,VWS V14.00,2013-02-14 01:54:00,
2013-02-13 20:55:00,26.1,6.6,29.54,NNE,21,0.0,0.0,43,0.00,,---,0.04,VWS V14.00,2013-02-14 01:55:00,
2013-02-13 20:57:00,26.1,6.6,29.54,NNE,21,3.4,3.4,43,0.00,,---,0.04,VWS V14.00,2013-02-14 01:57:00,
2013-02-13 20:59:00,26.1,6.6,29.54,NNE,22,0.0,0.0,43,0.00,,---,0.04,VWS V14.00,2013-02-14 01:59:00,
2013-02-13 21:00:00,25.9,6.5,29.54,NNE,22,0.0,0.0,43,0.00,,---,0.04,VWS V14.00,2013-02-14 02:00:00,
2013-02-13 21:02:00,25.9,6.5,29.54,NNE,22,0.0,0.0,43,0.00,,---,0.04,VWS V14.00,2013-02-14 02:02:00,
2013-02-13 21:04:00,25.9,6.5,29.54,NNE,22,0.0,0.0,43,0.00,,---,0.04,VWS V14.00,2013-02-14 02:04:00,
2013-02-13 21:05:00,25.7,6.3,29.54,NNE,22,0.0,0.0,43,0.00,,---,0.04,VWS V14.00,2013-02-14 02:05:00,
2013-02-13 21:07:00,25.9,6.5,29.54,NNE,22,0.0,0.0,43,0.00,,---,0.04,VWS V14.00,2013-02-14 02:07:00,
2013-02-13 21:08:00,25.9,6.5,29.54,NNE,22,0.0,0.0,43,0.00,,---,0.04,VWS V14.00,2013-02-14 02:08:00,
2013-02-13 21:09:00,25.9,6.5,29.54,NNE,22,0.0,0.0,43,0.00,,---,0.04,VWS V14.00,2013-02-14 02:09:00,
2013-02-13 21:11:00,25.7,6.3,29.54,NNE,22,0.0,0.0,43,0.00,,---,0.04,VWS V14.00,2013-02-14 02:11:00,
2013-02-13 21:12:00,25.7,6.3,29.54,NNE,22,0.0,0.0,43,0.00,,---,0.04,VWS V14.00,2013-02-14 02:12:00,
2013-02-13 21:13:00,25.9,6.5,29.54,NNE,22,0.0,0.0,43,0.00,,---,0.04,VWS V14.00,2013-02-14 02:13:00,
2013-02-13 21:14:00,25.9,6.5,29.54,NNE,22,3.4,3.4,43,0.00,,---,0.04,VWS V14.00,2013-02-14 02:14:00,
2013-02-13 21:16:00,25.9,6.5,29.54,NNE,22,0.0,0.0,43,0.00,,---,0.04,VWS V14.00,2013-02-14 02:16:00,
2013-02-13 21:17:00,25.9,6.5,29.54,NNE,22,3.4,3.4,43,0.00,,---,0.04,VWS V14.00,2013-02-14 02:17:00,
2013-02-13 21:18:00,25.9,6.5,29.54,NNE,22,0.0,0.0,43,0.00,,---,0.04,VWS V14.00,2013-02-14 02:18:00,
2013-02-13 21:20:00,25.9,6.5,29.54,NNE,22,0.0,0.0,43,0.00,,---,0.04,VWS V14.00,2013-02-14 02:20:00,
2013-02-13 21:21:00,25.9,6.5,29.54,NNE,22,0.0,0.0,43,0.00,,---,0.04,VWS V14.00,2013-02-14 02:21:00,
2013-02-13 21:22:00,25.9,6.5,29.54,NNE,22,0.0,0.0,43,0.00,,---,0.04,VWS V14.00,2013-02-14 02:22:00,
2013-02-13 21:23:00,25.7,6.3,29.54,NNE,22,0.0,0.0,43,0.00,,---,0.04,VWS V14.00,2013-02-14 02:23:00,
2013-02-13 21:25:00,25.7,6.3,29.54,NNE,22,0.0,0.0,43,0.00,,---,0.04,VWS V14.00,2013-02-14 02:25:00,
2013-02-13 21:26:00,25.7,6.3,29.54,NNE,22,0.0,0.0,43,0.00,,---,0.04,VWS V14.00,2013-02-14 02:26:00,
2013-02-13 21:28:00,25.7,6.3,29.54,NNE,22,0.0,0.0,43,0.00,,---,0.04,VWS V14.00,2013-02-14 02:28:00,
2013-02-13 21:30:00,25.7,6.3,29.54,North,10,0.0,4.0,43,0.00,,---,0.04,VWS V14.00,2013-02-14 02:30:00,
2013-02-13 21:31:00,25.7,6.3,29.54,North,10,3.4,4.0,43,0.00,,---,0.04,VWS V14.00,2013-02-14 02:31:00,
2013-02-13 21:33:00,25.7,6.3,29.54,North,10,0.0,0.0,43,0.00,,---,0.04,VWS V14.00,2013-02-14 02:33:00,
2013-02-13 21:35:00,25.9,7.0,29.54,North,10,3.4,3.4,44,0.00,,---,0.04,VWS V14.00,2013-02-14 02:35:00,
2013-02-13 21:36:00,25.9,7.0,29.54,North,10,0.0,3.4,44,0.00,,---,0.04,VWS V14.00,2013-02-14 02:36:00,
2013-02-13 21:38:00,25.9,7.0,29.54,North,10,0.0,0.0,44,0.00,,---,0.04,VWS V14.00,2013-02-14 02:38:00,
2013-02-13 21:39:00,25.9,7.0,29.54,North,10,4.0,4.0,44,0.00,,---,0.04,VWS V14.00,2013-02-14 02:39:00,
2013-02-13 21:40:00,26.1,7.2,29.54,North,9,3.4,4.0,44,0.00,,---,0.04,VWS V14.00,2013-02-14 02:40:00,
2013-02-13 21:41:00,26.1,7.2,29.54,North,9,4.0,4.0,44,0.00,,---,0.04,VWS V14.00,2013-02-14 02:41:00,
2013-02-13 21:43:00,26.1,7.2,29.54,North,9,0.0,4.7,44,0.00,,---,0.04,VWS V14.00,2013-02-14 02:43:00,
2013-02-13 21:44:00,26.1,7.2,29.54,North,9,3.4,3.4,44,0.00,,---,0.04,VWS V14.00,2013-02-14 02:44:00,
2013-02-13 21:45:00,26.1,7.2,29.54,North,9,4.0,4.0,44,0.00,,---,0.04,VWS V14.00,2013-02-14 02:45:00,
2013-02-13 21:46:00,26.1,7.2,29.54,North,0,5.4,5.4,44,0.00,,---,0.04,VWS V14.00,2013-02-14 02:46:00,
2013-02-13 21:48:00,26.1,7.2,29.54,North,353,4.0,6.0,44,0.00,,---,0.04,VWS V14.00,2013-02-14 02:48:00,
2013-02-13 21:49:00,26.1,7.2,29.54,North,0,5.4,6.0,44,0.00,,---,0.04,VWS V14.00,2013-02-14 02:49:00,
2013-02-13 21:50:00,26.2,7.3,29.54,North,353,4.0,5.4,44,0.00,,---,0.04,VWS V14.00,2013-02-14 02:50:00,
2013-02-13 21:51:00,26.2,7.3,29.54,North,0,4.7,4.7,44,0.00,,---,0.04,VWS V14.00,2013-02-14 02:51:00,
2013-02-13 21:53:00,26.2,7.3,29.54,North,357,4.7,4.7,44,0.00,,---,0.04,VWS V14.00,2013-02-14 02:53:00,
2013-02-13 21:54:00,26.2,7.3,29.54,North,357,3.4,4.0,44,0.00,,---,0.04,VWS V14.00,2013-02-14 02:54:00,
2013-02-13 21:55:00,26.2,7.3,29.54,North,357,3.4,4.0,44,0.00,,---,0.04,VWS V14.00,2013-02-14 02:55:00,
2013-02-13 21:56:00,26.2,7.3,29.54,North,357,4.0,4.0,44,0.00,,---,0.04,VWS V14.00,2013-02-14 02:56:00,
2013-02-13 21:58:00,26.2,7.3,29.54,North,357,0.0,4.0,44,0.00,,---,0.04,VWS V14.00,2013-02-14 02:58:00,
2013-02-13 21:59:00,26.2,7.3,29.54,North,0,3.4,3.4,44,0.00,,---,0.04,VWS V14.00,2013-02-14 02:59:00,
2013-02-13 22:00:00,26.2,7.3,29.54,North,6,4.0,4.0,44,0.00,,---,0.04,VWS V14.00,2013-02-14 03:00:00,
2013-02-13 22:02:00,26.4,7.5,29.54,North,6,4.0,4.0,44,0.00,,---,0.04,VWS V14.00,2013-02-14 03:02:00,
2013-02-13 22:03:00,26.2,7.3,29.54,North,4,4.0,4.0,44,0.00,,---,0.04,VWS V14.00,2013-02-14 03:03:00,
2013-02-13 22:04:00,26.4,7.5,29.54,North,357,4.0,4.7,44,0.00,,---,0.04,VWS V14.00,2013-02-14 03:04:00,
2013-02-13 22:05:00,26.4,7.5,29.54,North,357,0.0,0.0,44,0.00,,---,0.04,VWS V14.00,2013-02-14 03:05:00,
2013-02-13 22:06:00,26.4,7.5,29.54,North,357,0.0,0.0,44,0.00,,---,0.04,VWS V14.00,2013-02-14 03:06:00,
2013-02-13 22:08:00,26.4,7.5,29.54,North,357,0.0,0.0,44,0.00,,---,0.04,VWS V14.00,2013-02-14 03:08:00,
2013-02-13 22:09:00,26.4,7.5,29.54,North,357,0.0,0.0,44,0.00,,---,0.04,VWS V14.00,2013-02-14 03:09:00,
2013-02-13 22:11:00,26.4,7.5,29.54,North,357,0.0,0.0,44,0.00,,---,0.04,VWS V14.00,2013-02-14 03:11:00,
2013-02-13 22:12:00,26.4,7.5,29.54,North,357,0.0,0.0,44,0.00,,---,0.04,VWS V14.00,2013-02-14 03:12:00,
2013-02-13 22:13:00,26.2,7.3,29.54,North,357,0.0,0.0,44,0.00,,---,0.04,VWS V14.00,2013-02-14 03:13:00,
2013-02-13 22:14:00,26.2,7.3,29.54,North,357,0.0,0.0,44,0.00,,---,0.04,VWS V14.00,2013-02-14 03:14:00,
2013-02-13 22:16:00,26.2,6.8,29.54,North,357,0.0,3.4,43,0.00,,---,0.04,VWS V14.00,2013-02-14 03:16:00,
2013-02-13 22:17:00,26.2,6.8,29.54,North,357,0.0,0.0,43,0.00,,---,0.04,VWS V14.00,2013-02-14 03:17:00,
2013-02-13 22:18:00,26.2,6.8,29.54,North,357,0.0,0.0,43,0.00,,---,0.04,VWS V14.00,2013-02-14 03:18:00,
2013-02-13 22:19:00,26.2,6.8,29.54,North,357,0.0,0.0,43,0.00,,---,0.04,VWS V14.00,2013-02-14 03:19:00,
2013-02-13 22:21:00,26.1,6.6,29.54,North,357,0.0,0.0,43,0.00,,---,0.04,VWS V14.00,2013-02-14 03:21:00,
2013-02-13 22:22:00,26.1,6.6,29.54,North,357,0.0,0.0,43,0.00,,---,0.04,VWS V14.00,2013-02-14 03:22:00,
2013-02-13 22:23:00,26.1,6.6,29.54,North,357,0.0,0.0,43,0.00,,---,0.04,VWS V14.00,2013-02-14 03:23:00,
2013-02-13 22:24:00,26.1,6.6,29.54,North,357,0.0,0.0,43,0.00,,---,0.04,VWS V14.00,2013-02-14 03:24:00,
2013-02-13 22:26:00,26.1,6.6,29.54,North,357,0.0,0.0,43,0.00,,---,0.04,VWS V14.00,2013-02-14 03:26:00,
2013-02-13 22:27:00,26.1,6.6,29.54,North,357,0.0,0.0,43,0.00,,---,0.04,VWS V14.00,2013-02-14 03:27:00,
2013-02-13 22:29:00,26.1,7.2,29.54,North,357,0.0,0.0,44,0.00,,---,0.04,VWS V14.00,2013-02-14 03:29:00,
2013-02-13 22:31:00,26.2,7.3,29.54,North,357,0.0,0.0,44,0.00,,---,0.04,VWS V14.00,2013-02-14 03:31:00,
2013-02-13 22:32:00,26.2,7.3,29.54,North,357,0.0,0.0,44,0.00,,---,0.04,VWS V14.00,2013-02-14 03:32:00,
2013-02-13 22:34:00,26.2,7.3,29.54,North,357,0.0,0.0,44,0.00,,---,0.04,VWS V14.00,2013-02-14 03:34:00,
2013-02-13 22:36:00,26.2,7.3,29.54,North,357,0.0,0.0,44,0.00,,---,0.04,VWS V14.00,2013-02-14 03:36:00,
2013-02-13 22:37:00,26.2,7.3,29.54,North,357,0.0,0.0,44,0.00,,---,0.04,VWS V14.00,2013-02-14 03:37:00,
2013-02-13 22:39:00,26.2,7.3,29.54,North,357,0.0,0.0,44,0.00,,---,0.04,VWS V14.00,2013-02-14 03:39:00,
2013-02-13 22:40:00,26.2,7.3,29.54,North,357,0.0,0.0,44,0.00,,---,0.04,VWS V14.00,2013-02-14 03:40:00,
2013-02-13 22:41:00,26.2,7.3,29.54,North,357,0.0,0.0,44,0.00,,---,0.04,VWS V14.00,2013-02-14 03:41:00,
2013-02-13 22:42:00,26.2,7.3,29.54,North,357,0.0,0.0,44,0.00,,---,0.04,VWS V14.00,2013-02-14 03:42:00,
2013-02-13 22:44:00,26.2,7.3,29.54,North,357,0.0,0.0,44,0.00,,---,0.04,VWS V14.00,2013-02-14 03:44:00,
2013-02-13 22:45:00,26.2,7.3,29.54,North,357,0.0,0.0,44,0.00,,---,0.04,VWS V14.00,2013-02-14 03:45:00,
2013-02-13 22:46:00,26.2,7.3,29.54,North,357,0.0,0.0,44,0.00,,---,0.04,VWS V14.00,2013-02-14 03:46:00,
2013-02-13 22:47:00,26.2,7.3,29.54,North,357,0.0,0.0,44,0.00,,---,0.04,VWS V14.00,2013-02-14 03:47:00,
2013-02-13 22:49:00,26.2,7.3,29.54,North,357,0.0,0.0,44,0.00,,---,0.04,VWS V14.00,2013-02-14 03:49:00,
2013-02-13 22:50:00,26.2,7.3,29.54,North,357,0.0,0.0,44,0.00,,---,0.04,VWS V14.00,2013-02-14 03:50:00,
2013-02-13 22:52:00,26.2,7.3,29.54,North,357,0.0,0.0,44,0.00,,---,0.04,VWS V14.00,2013-02-14 03:52:00,
2013-02-13 22:55:00,26.2,7.3,29.54,North,357,0.0,0.0,44,0.00,,---,0.04,VWS V14.00,2013-02-14 03:55:00,
2013-02-13 22:56:00,26.2,7.3,29.54,North,357,0.0,0.0,44,0.00,,---,0.04,VWS V14.00,2013-02-14 03:56:00,
2013-02-13 22:57:00,26.2,7.3,29.54,North,357,0.0,0.0,44,0.00,,---,0.04,VWS V14.00,2013-02-14 03:57:00,
2013-02-13 23:00:00,26.2,7.3,29.54,North,357,0.0,0.0,44,0.00,,---,0.04,VWS V14.00,2013-02-14 04:00:00,
2013-02-13 23:01:00,26.2,7.3,29.54,North,357,0.0,0.0,44,0.00,,---,0.04,VWS V14.00,2013-02-14 04:01:00,
2013-02-13 23:02:00,26.2,7.3,29.54,North,357,0.0,0.0,44,0.00,,---,0.04,VWS V14.00,2013-02-14 04:02:00,
2013-02-13 23:06:00,26.2,7.3,29.51,North,357,0.0,0.0,44,0.00,,---,0.04,VWS V14.00,2013-02-14 04:06:00,
2013-02-13 23:07:00,26.1,7.2,29.51,North,357,0.0,0.0,44,0.00,,---,0.04,VWS V14.00,2013-02-14 04:07:00,
2013-02-13 23:08:00,26.1,7.2,29.51,North,357,0.0,0.0,44,0.00,,---,0.04,VWS V14.00,2013-02-14 04:08:00,
2013-02-13 23:11:00,26.1,7.2,29.51,North,357,0.0,0.0,44,0.00,,---,0.04,VWS V14.00,2013-02-14 04:11:00,
2013-02-13 23:12:00,26.1,7.2,29.51,North,357,0.0,0.0,44,0.00,,---,0.04,VWS V14.00,2013-02-14 04:12:00,
2013-02-13 23:13:00,26.1,7.2,29.51,North,357,0.0,0.0,44,0.00,,---,0.04,VWS V14.00,2013-02-14 04:13:00,
2013-02-13 23:16:00,26.2,7.3,29.51,North,357,0.0,0.0,44,0.00,,---,0.04,VWS V14.00,2013-02-14 04:16:00,
2013-02-13 23:17:00,26.2,7.3,29.51,North,357,0.0,0.0,44,0.00,,---,0.04,VWS V14.00,2013-02-14 04:17:00,
2013-02-13 23:18:00,26.2,7.3,29.51,North,357,0.0,0.0,44,0.00,,---,0.04,VWS V14.00,2013-02-14 04:18:00,
2013-02-13 23:21:00,26.2,7.3,29.51,North,357,0.0,0.0,44,0.00,,---,0.04,VWS V14.00,2013-02-14 04:21:00,
2013-02-13 23:22:00,26.2,7.3,29.51,North,357,0.0,0.0,44,0.00,,---,0.04,VWS V14.00,2013-02-14 04:22:00,
2013-02-13 23:23:00,26.2,7.3,29.51,North,357,0.0,0.0,44,0.00,,---,0.04,VWS V14.00,2013-02-14 04:23:00,
2013-02-13 23:26:00,26.2,7.3,29.51,North,357,0.0,0.0,44,0.00,,---,0.04,VWS V14.00,2013-02-14 04:26:00,
2013-02-13 23:27:00,26.2,7.3,29.51,North,357,0.0,0.0,44,0.00,,---,0.04,VWS V14.00,2013-02-14 04:27:00,
2013-02-13 23:28:00,26.2,7.3,29.51,North,357,0.0,0.0,44,0.00,,---,0.04,VWS V14.00,2013-02-14 04:28:00,
2013-02-13 23:31:00,26.2,7.3,29.51,North,357,0.0,0.0,44,0.00,,---,0.04,VWS V14.00,2013-02-14 04:31:00,
2013-02-13 23:32:00,26.2,7.3,29.51,North,357,0.0,0.0,44,0.00,,---,0.04,VWS V14.00,2013-02-14 04:32:00,
2013-02-13 23:33:00,26.2,7.3,29.51,North,357,0.0,0.0,44,0.00,,---,0.04,VWS V14.00,2013-02-14 04:33:00,
2013-02-13 23:36:00,26.2,7.3,29.51,North,357,0.0,0.0,44,0.00,,---,0.04,VWS V14.00,2013-02-14 04:36:00,
2013-02-13 23:37:00,26.2,7.3,29.51,North,357,0.0,0.0,44,0.00,,---,0.04,VWS V14.00,2013-02-14 04:37:00,
2013-02-13 23:38:00,26.2,7.3,29.51,North,357,0.0,0.0,44,0.00,,---,0.04,VWS V14.00,2013-02-14 04:38:00,
2013-02-13 23:41:00,26.2,7.3,29.51,North,357,0.0,0.0,44,0.00,,---,0.04,VWS V14.00,2013-02-14 04:41:00,
2013-02-13 23:42:00,26.2,7.3,29.51,North,357,0.0,0.0,44,0.00,,---,0.04,VWS V14.00,2013-02-14 04:42:00,
2013-02-13 23:43:00,26.4,8.0,29.51,North,357,0.0,0.0,45,0.00,,---,0.04,VWS V14.00,2013-02-14 04:43:00,
2013-02-13 23:46:00,26.4,8.0,29.51,North,357,0.0,0.0,45,0.00,,---,0.04,VWS V14.00,2013-02-14 04:46:00,
2013-02-13 23:47:00,26.4,8.0,29.51,North,357,0.0,0.0,45,0.00,,---,0.04,VWS V14.00,2013-02-14 04:47:00,
2013-02-13 23:49:00,26.4,8.0,29.51,North,357,0.0,0.0,45,0.00,,---,0.04,VWS V14.00,2013-02-14 04:49:00,
2013-02-13 23:51:00,26.4,8.0,29.54,North,357,0.0,0.0,45,0.00,,---,0.04,VWS V14.00,2013-02-14 04:51:00,
2013-02-13 23:52:00,26.6,8.1,29.54,North,357,0.0,0.0,45,0.00,,---,0.04,VWS V14.00,2013-02-14 04:52:00,
2013-02-13 23:54:00,26.6,8.1,29.54,North,357,0.0,0.0,45,0.00,,---,0.04,VWS V14.00,2013-02-14 04:54:00,
2013-02-13 23:56:00,26.6,8.1,29.54,North,357,0.0,0.0,45,0.00,,---,0.04,VWS V14.00,2013-02-14 04:56:00,
2013-02-13 23:57:00,26.6,8.1,29.54,North,357,0.0,0.0,45,0.00,,---,0.04,VWS V14.00,2013-02-14 04:57:00,
2013-02-13 23:59:00,26.6,8.1,29.54,North,357,0.0,0.0,45,0.00,,---,0.04,VWS V14.00,2013-02-14 04:59:00,